| time (UTC) | temp F | wind direction | speed knots | gust knots | rain 1hr in | rain 24hr in | rain mn in | humidity % | barometer mb |
| 20260507104013 | 60 | 107 | 1.7 | 7.0 | 0.00 | 0.03 | 0.02 | 72 | 1018.5 |
| 20260507103916 | 60 | 74 | 1.7 | 7.0 | 0.00 | 0.03 | 0.02 | 72 | 1018.5 |
| 20260507103807 | 60 | 114 | 1.7 | 7.0 | 0.00 | 0.03 | 0.02 | 72 | 1018.3 |
| 20260507103704 | 60 | 114 | 0.9 | 7.0 | 0.00 | 0.03 | 0.02 | 73 | 1018.5 |
| 20260507103605 | 61 | 94 | 0.9 | 7.0 | 0.00 | 0.03 | 0.02 | 74 | 1018.3 |
| 20260507103505 | 60 | 126 | 0.9 | 5.2 | 0.00 | 0.03 | 0.02 | 74 | 1018.3 |
| 20260507103403 | 60 | 131 | 0.9 | 5.2 | 0.00 | 0.03 | 0.02 | 72 | 1018.5 |
| 20260507103302 | 60 | 109 | 0.9 | 5.2 | 0.00 | 0.03 | 0.02 | 72 | 1018.5 |
| 20260507103203 | 60 | 88 | 0.0 | 5.2 | 0.00 | 0.03 | 0.02 | 71 | 1018.5 |
| 20260507103105 | 60 | 105 | 0.0 | 5.2 | 0.00 | 0.03 | 0.02 | 72 | 1018.5 |
| 20260507103002 | 60 | 129 | 0.0 | 3.5 | 0.00 | 0.03 | 0.02 | 71 | 1018.5 |
| 20260507102903 | 61 | 111 | 0.0 | 3.5 | 0.00 | 0.03 | 0.02 | 70 | 1018.5 |
| 20260507102757 | 61 | 136 | 0.0 | 3.5 | 0.00 | 0.03 | 0.02 | 71 | 1018.5 |
| 20260507102657 | 61 | 131 | 0.0 | 3.5 | 0.00 | 0.03 | 0.02 | 70 | 1018.5 |
| 20260507102554 | 61 | 80 | 0.0 | 1.7 | 0.00 | 0.03 | 0.02 | 71 | 1018.3 |
| 20260507102454 | 61 | 69 | 0.0 | 1.7 | 0.00 | 0.03 | 0.02 | 73 | 1018.3 |
| 20260507102354 | 61 | 109 | 0.0 | 1.7 | 0.00 | 0.03 | 0.02 | 71 | 1018.3 |
| 20260507102258 | 61 | 74 | 0.0 | 5.2 | 0.00 | 0.03 | 0.02 | 73 | 1018.5 |
| 20260507102155 | 60 | 80 | 0.9 | 6.1 | 0.00 | 0.03 | 0.02 | 73 | 1018.5 |
| 20260507102053 | 60 | 128 | 0.9 | 7.8 | 0.00 | 0.03 | 0.02 | 71 | 1018.5 |
| 20260507101948 | 60 | 128 | 1.7 | 8.7 | 0.00 | 0.03 | 0.02 | 72 | 1018.5 |
| 20260507101852 | 60 | 103 | 1.7 | 8.7 | 0.00 | 0.03 | 0.02 | 74 | 1018.5 |
| 20260507101748 | 60 | 133 | 1.7 | 8.7 | 0.00 | 0.03 | 0.02 | 72 | 1018.3 |
| 20260507101647 | 60 | 78 | 1.7 | 8.7 | 0.00 | 0.03 | 0.02 | 72 | 1018.5 |
| 20260507101547 | 60 | 137 | 1.7 | 8.7 | 0.00 | 0.03 | 0.02 | 75 | 1018.3 |
| 20260507101448 | 60 | 128 | 1.7 | 8.7 | 0.00 | 0.00 | 0.00 | ||
| 20260507101445 | 60 | 128 | 1.7 | 8.7 | 0.00 | 0.03 | 0.02 | 71 | 1018.3 |
| 20260507101345 | 60 | 146 | 1.7 | 8.7 | 0.00 | 0.03 | 0.02 | 72 | 1018.5 |
| 20260507101236 | 60 | 103 | 1.7 | 8.7 | 0.00 | 0.03 | 0.02 | 71 | 1018.3 |
| 20260507101137 | 60 | 140 | 1.7 | 8.7 | 0.00 | 0.03 | 0.02 | 72 | 1018.5 |
| 20260507101037 | 60 | 148 | 0.9 | 8.7 | 0.00 | 0.03 | 0.02 | 71 | 1018.5 |
| 20260507100937 | 60 | 136 | 0.9 | 7.8 | 0.00 | 0.03 | 0.02 | 73 | 1018.3 |
| 20260507100835 | 60 | 71 | 0.0 | 5.2 | 0.00 | 0.03 | 0.02 | 72 | 1018.3 |
| 20260507100730 | 60 | 106 | 0.0 | 4.3 | 0.00 | 0.03 | 0.02 | 72 | 1018.5 |
| 20260507100630 | 60 | 82 | 0.0 | 4.3 | 0.00 | 0.03 | 0.02 | 72 | 1018.5 |
| 20260507100532 | 60 | 153 | 0.0 | 4.3 | 0.00 | 0.03 | 0.02 | 72 | 1018.5 |
| 20260507100432 | 60 | 161 | 0.0 | 4.3 | 0.00 | 0.03 | 0.02 | 71 | 1018.5 |
| 20260507100331 | 60 | 91 | 0.0 | 6.1 | 0.00 | 0.03 | 0.02 | 70 | 1018.6 |
| 20260507100229 | 60 | 168 | 0.0 | 6.1 | 0.00 | 0.03 | 0.02 | 72 | 1018.6 |
| 20260507100123 | 60 | 136 | 0.0 | 6.1 | 0.00 | 0.03 | 0.02 | 74 | 1018.6 |
| 20260507100026 | 60 | 138 | 0.0 | 6.1 | 0.00 | 0.03 | 0.02 | 75 | 1018.6 |
| 20260507095923 | 60 | 99 | 0.0 | 6.1 | 0.00 | 0.03 | 0.02 | 73 | 1018.5 |
| 20260507095829 | 59 | 156 | 0.0 | 6.1 | 0.00 | 0.03 | 0.02 | 72 | 1018.5 |
| 20260507095717 | 59 | 156 | 0.0 | 6.1 | 0.00 | 0.03 | 0.02 | 72 | 1018.5 |
| 20260507095623 | 59 | 181 | 0.0 | 6.1 | 0.00 | 0.03 | 0.02 | 72 | 1018.6 |
| 20260507095517 | 59 | 136 | 0.9 | 6.1 | 0.00 | 0.03 | 0.02 | 73 | 1018.6 |
| 20260507095415 | 59 | 99 | 0.0 | 4.3 | 0.00 | 0.03 | 0.02 | 73 | 1018.6 |
| 20260507095315 | 59 | 164 | 0.9 | 4.3 | 0.00 | 0.03 | 0.02 | 73 | 1018.6 |
| 20260507095215 | 59 | 175 | 0.9 | 7.0 | 0.00 | 0.03 | 0.02 | 72 | 1018.6 |
| 20260507095116 | 59 | 159 | 0.9 | 7.0 | 0.00 | 0.03 | 0.02 | 73 | 1018.6 |
| 20260507095012 | 59 | 147 | 0.9 | 7.0 | 0.00 | 0.03 | 0.02 | 73 | 1018.6 |
| 20260507094909 | 59 | 146 | 0.9 | 7.0 | 0.00 | 0.03 | 0.02 | 74 | 1018.6 |
| 20260507094810 | 59 | 130 | 0.9 | 7.0 | 0.00 | 0.03 | 0.02 | 75 | 1018.6 |
| 20260507094709 | 59 | 130 | 0.9 | 7.0 | 0.00 | 0.03 | 0.02 | 74 | 1018.6 |
| 20260507094615 | 59 | 134 | 0.9 | 7.0 | 0.00 | 0.03 | 0.02 | 75 | 1018.6 |
| 20260507094507 | 59 | 120 | 0.9 | 7.0 | 0.00 | 0.03 | 0.02 | 74 | 1018.5 |
| 20260507094409 | 59 | 147 | 0.9 | 7.0 | 0.00 | 0.03 | 0.02 | 73 | 1018.5 |
| 20260507094307 | 59 | 134 | 0.0 | 7.0 | 0.00 | 0.03 | 0.02 | 74 | 1018.6 |
| 20260507094207 | 59 | 138 | 0.0 | 5.2 | 0.00 | 0.03 | 0.02 | 74 | 1018.5 |
| 20260507094103 | 59 | 133 | 0.0 | 4.3 | 0.00 | 0.03 | 0.02 | 74 | 1018.6 |
| 20260507094003 | 59 | 142 | 0.0 | 3.5 | 0.00 | 0.03 | 0.02 | 72 | 1018.6 |
| 20260507093904 | 59 | 144 | 0.0 | 3.5 | 0.00 | 0.03 | 0.02 | 72 | 1018.6 |
| 20260507093802 | 59 | 109 | 0.0 | 3.5 | 0.00 | 0.03 | 0.02 | 72 | 1018.6 |
| 20260507093701 | 60 | 109 | 0.0 | 3.5 | 0.00 | 0.03 | 0.02 | 72 | 1018.5 |
| 20260507093602 | 60 | 140 | 0.0 | 3.5 | 0.00 | 0.03 | 0.02 | 72 | 1018.6 |
| 20260507093501 | 60 | 106 | 0.0 | 3.5 | 0.00 | 0.03 | 0.02 | 71 | 1018.6 |
| 20260507093403 | 60 | 107 | 0.0 | 3.5 | 0.00 | 0.03 | 0.02 | 73 | 1018.6 |
| 20260507093301 | 60 | 140 | 0.0 | 3.5 | 0.00 | 0.03 | 0.02 | 73 | 1018.6 |
| 20260507093202 | 60 | 159 | 0.0 | 3.5 | 0.00 | 0.03 | 0.02 | 72 | 1018.6 |
| 20260507093107 | 60 | 134 | 0.0 | 3.5 | 0.00 | 0.03 | 0.02 | 72 | 1018.6 |
| 20260507093001 | 60 | 114 | 0.9 | 5.2 | 0.00 | 0.03 | 0.02 | 71 | 1018.6 |
| 20260507092900 | 60 | 99 | 0.9 | 5.2 | 0.00 | 0.03 | 0.02 | 71 | 1018.6 |
| 20260507092801 | 60 | 106 | 0.9 | 5.2 | 0.00 | 0.03 | 0.02 | 71 | 1018.6 |
| 20260507092701 | 60 | 107 | 0.9 | 6.1 | 0.00 | 0.03 | 0.02 | 70 | 1018.6 |
| 20260507092607 | 60 | 116 | 0.9 | 6.1 | 0.00 | 0.03 | 0.02 | 70 | 1018.6 |
| 20260507092502 | 60 | 97 | 0.9 | 6.1 | 0.00 | 0.03 | 0.02 | 70 | 1018.6 |
| 20260507092356 | 60 | 98 | 0.9 | 6.1 | 0.00 | 0.03 | 0.02 | 70 | 1018.6 |
| 20260507092259 | 60 | 138 | 0.9 | 6.1 | 0.00 | 0.03 | 0.02 | 70 | 1018.6 |
| 20260507092155 | 60 | 110 | 0.9 | 6.1 | 0.00 | 0.03 | 0.02 | 71 | 1018.6 |
| 20260507092101 | 60 | 117 | 0.9 | 6.1 | 0.00 | 0.03 | 0.02 | 72 | 1018.6 |
| 20260507091949 | 60 | 92 | 0.9 | 6.1 | 0.00 | 0.03 | 0.02 | 71 | 1018.6 |
| 20260507091848 | 60 | 127 | 0.9 | 6.1 | 0.00 | 0.03 | 0.02 | 70 | 1018.6 |
| 20260507091749 | 60 | 142 | 0.9 | 5.2 | 0.00 | 0.03 | 0.02 | 71 | 1018.5 |
| 20260507091647 | 60 | 115 | 0.9 | 5.2 | 0.00 | 0.03 | 0.02 | 73 | 1018.6 |
| 20260507091545 | 60 | 144 | 0.9 | 3.5 | 0.00 | 0.03 | 0.02 | 71 | 1018.6 |
| 20260507091438 | 60 | 32 | 0.9 | 3.5 | 0.00 | 0.03 | 0.02 | 71 | 1018.6 |
| 20260507091338 | 60 | 19 | 0.9 | 3.5 | 0.00 | 0.03 | 0.02 | 71 | 1018.6 |
| 20260507091236 | 60 | 92 | 0.9 | 3.5 | 0.00 | 0.03 | 0.02 | 70 | 1018.6 |
| 20260507091135 | 60 | 80 | 0.9 | 3.5 | 0.00 | 0.03 | 0.02 | 70 | 1018.6 |
| 20260507091037 | 60 | 167 | 0.9 | 3.5 | 0.00 | 0.03 | 0.02 | 70 | 1018.6 |
| 20260507090932 | 60 | 106 | 0.9 | 2.6 | 0.00 | 0.03 | 0.02 | 71 | 1018.6 |
| 20260507090836 | 60 | 111 | 0.9 | 2.6 | 0.00 | 0.03 | 0.02 | 71 | 1018.6 |
| 20260507090733 | 60 | 155 | 0.9 | 2.6 | 0.00 | 0.03 | 0.02 | 70 | 1018.6 |
| 20260507090635 | 60 | 155 | 0.9 | 2.6 | 0.00 | 0.03 | 0.02 | 70 | 1018.6 |
| 20260507090531 | 60 | 155 | 0.9 | 3.5 | 0.00 | 0.03 | 0.02 | 71 | 1018.6 |
| 20260507090431 | 60 | 165 | 0.9 | 3.5 | 0.00 | 0.03 | 0.02 | 72 | 1018.6 |
| 20260507090330 | 60 | 148 | 0.9 | 3.5 | 0.00 | 0.03 | 0.02 | 72 | 1018.6 |
| 20260507090231 | 60 | 109 | 0.0 | 3.5 | 0.00 | 0.03 | 0.02 | 72 | 1018.6 |
| 20260507090130 | 59 | 111 | 0.0 | 3.5 | 0.00 | 0.03 | 0.02 | 71 | 1018.6 |
| 20260507090032 | 59 | 46 | 0.0 | 3.5 | 0.00 | 0.03 | 0.02 | 70 | 1018.6 |
| 20260507085930 | 60 | 46 | 0.0 | 3.5 | 0.00 | 0.03 | 0.02 | 70 | 1018.6 |
| 20260507085830 | 59 | 46 | 0.0 | 3.5 | 0.00 | 0.03 | 0.02 | 72 | 1018.6 |
| 20260507085729 | 59 | 83 | 0.0 | 3.5 | 0.00 | 0.03 | 0.02 | 71 | 1018.6 |
| 20260507085631 | 59 | 86 | 0.0 | 3.5 | 0.00 | 0.03 | 0.02 | 71 | 1018.6 |
| 20260507085529 | 59 | 28 | 0.0 | 3.5 | 0.00 | 0.03 | 0.02 | 70 | 1018.6 |
| 20260507085431 | 60 | 40 | 0.0 | 3.5 | 0.00 | 0.03 | 0.02 | 70 | 1018.6 |
| 20260507085327 | 60 | 111 | 0.0 | 3.5 | 0.00 | 0.03 | 0.02 | 70 | 1018.6 |
| 20260507085227 | 60 | 89 | 0.0 | 3.5 | 0.00 | 0.03 | 0.02 | 72 | 1018.6 |
| 20260507085127 | 60 | 96 | 0.0 | 3.5 | 0.00 | 0.03 | 0.02 | 71 | 1018.6 |
| 20260507085024 | 60 | 119 | 0.0 | 3.5 | 0.00 | 0.03 | 0.02 | 72 | 1018.6 |
| 20260507084919 | 59 | 90 | 0.0 | 3.5 | 0.00 | 0.03 | 0.02 | 70 | 1018.5 |
| 20260507084815 | 59 | 67 | 0.0 | 3.5 | 0.00 | 0.03 | 0.02 | 72 | 1018.6 |
| 20260507084713 | 59 | 59 | 0.0 | 3.5 | 0.00 | 0.03 | 0.02 | 71 | 1018.6 |
| 20260507084611 | 59 | 86 | 0.0 | 2.6 | 0.00 | 0.03 | 0.02 | 72 | 1018.5 |
| 20260507084511 | 59 | 109 | 0.0 | 0.0 | 0.00 | 0.03 | 0.02 | 72 | 1018.5 |
| 20260507084411 | 59 | 109 | 0.0 | 4.3 | 0.00 | 0.03 | 0.02 | 71 | 1018.6 |
| 20260507084311 | 59 | 109 | 0.9 | 6.1 | 0.00 | 0.03 | 0.02 | 71 | 1018.5 |
| 20260507084211 | 59 | 109 | 0.9 | 6.1 | 0.00 | 0.03 | 0.02 | 71 | 1018.5 |
| 20260507084109 | 59 | 109 | 0.9 | 6.1 | 0.00 | 0.03 | 0.02 | 70 | 1018.5 |
| 20260507084009 | 59 | 103 | 0.9 | 6.1 | 0.00 | 0.03 | 0.02 | 71 | 1018.5 |
| 20260507083908 | 59 | 109 | 0.9 | 6.1 | 0.00 | 0.03 | 0.02 | 71 | 1018.5 |
| 20260507083809 | 59 | 150 | 0.9 | 6.1 | 0.00 | 0.03 | 0.02 | 72 | 1018.6 |
| 20260507083711 | 59 | 153 | 0.9 | 6.1 | 0.00 | 0.03 | 0.02 | 72 | 1018.6 |
| 20260507083610 | 59 | 150 | 0.9 | 6.1 | 0.00 | 0.03 | 0.02 | 71 | 1018.5 |
| 20260507083507 | 59 | 152 | 0.9 | 6.1 | 0.00 | 0.03 | 0.02 | 72 | 1018.5 |
| 20260507083407 | 59 | 142 | 0.0 | 6.1 | 0.00 | 0.03 | 0.02 | 73 | 1018.5 |
| 20260507083307 | 59 | 103 | 0.0 | 3.5 | 0.00 | 0.03 | 0.02 | 71 | 1018.6 |
| 20260507083204 | 59 | 59 | 0.0 | 3.5 | 0.00 | 0.03 | 0.02 | 70 | 1018.6 |
| 20260507083104 | 59 | 59 | 0.0 | 3.5 | 0.00 | 0.03 | 0.02 | 70 | 1018.6 |
| 20260507083003 | 59 | 59 | 0.0 | 2.6 | 0.00 | 0.03 | 0.02 | 70 | 1018.6 |
| 20260507082901 | 58 | 123 | 0.0 | 2.6 | 0.00 | 0.03 | 0.02 | 71 | 1018.6 |
| 20260507082802 | 58 | 123 | 0.0 | 0.9 | 0.00 | 0.03 | 0.02 | 73 | 1018.6 |
| 20260507082658 | 58 | 123 | 0.0 | 0.9 | 0.00 | 0.03 | 0.02 | 71 | 1018.6 |
| 20260507082557 | 58 | 122 | 0.0 | 0.0 | 0.00 | 0.03 | 0.02 | 71 | 1018.6 |
| 20260507082457 | 58 | 122 | 0.0 | 0.0 | 0.00 | 0.03 | 0.02 | 71 | 1018.6 |
| 20260507082354 | 58 | 86 | 0.0 | 0.0 | 0.00 | 0.03 | 0.02 | 71 | 1018.6 |
| 20260507082254 | 58 | 86 | 0.0 | 0.0 | 0.00 | 0.03 | 0.02 | 71 | 1018.6 |
| 20260507082155 | 58 | 86 | 0.0 | 0.0 | 0.00 | 0.03 | 0.02 | 71 | 1018.6 |
| 20260507082055 | 58 | 86 | 0.0 | 0.0 | 0.00 | 0.03 | 0.02 | 71 | 1018.6 |
| 20260507081954 | 58 | 86 | 0.0 | 0.0 | 0.00 | 0.03 | 0.02 | 72 | 1018.6 |
| 20260507081855 | 58 | 86 | 0.0 | 0.0 | 0.00 | 0.03 | 0.02 | 73 | 1018.6 |
| 20260507081752 | 58 | 81 | 0.0 | 0.0 | 0.00 | 0.03 | 0.02 | 72 | 1018.6 |
| 20260507081653 | 58 | 61 | 0.0 | 0.0 | 0.00 | 0.03 | 0.02 | 73 | 1018.6 |
| 20260507081551 | 58 | 96 | 0.0 | 0.0 | 0.00 | 0.03 | 0.02 | 73 | 1018.6 |
| 20260507081449 | 58 | 128 | 0.0 | 0.0 | 0.00 | 0.03 | 0.02 | 74 | 1018.6 |
| 20260507081348 | 59 | 115 | 0.0 | 0.0 | 0.00 | 0.03 | 0.02 | 72 | 1018.6 |
| 20260507081250 | 59 | 109 | 0.0 | 0.0 | 0.00 | 0.03 | 0.02 | 73 | 1018.6 |
| 20260507081148 | 59 | 145 | 0.0 | 0.0 | 0.00 | 0.03 | 0.02 | 71 | 1018.6 |
| 20260507081049 | 59 | 140 | 0.0 | 0.0 | 0.00 | 0.03 | 0.02 | 70 | 1018.6 |
| 20260507080949 | 58 | 140 | 0.0 | 0.0 | 0.00 | 0.03 | 0.02 | 70 | 1018.6 |
| 20260507080847 | 58 | 141 | 0.0 | 0.0 | 0.00 | 0.03 | 0.02 | 71 | 1018.7 |
| 20260507080747 | 58 | 123 | 0.0 | 0.0 | 0.00 | 0.03 | 0.02 | 71 | 1018.6 |
| 20260507080645 | 58 | 171 | 0.0 | 0.0 | 0.00 | 0.03 | 0.02 | 72 | 1018.7 |
| 20260507080545 | 58 | 171 | 0.0 | 0.0 | 0.00 | 0.03 | 0.02 | 73 | 1018.6 |
| 20260507080445 | 58 | 171 | 0.0 | 0.0 | 0.00 | 0.03 | 0.02 | 73 | 1018.6 |
| 20260507080344 | 58 | 126 | 0.0 | 0.0 | 0.00 | 0.03 | 0.02 | 72 | 1018.6 |
| 20260507080244 | 58 | 126 | 0.0 | 0.0 | 0.00 | 0.03 | 0.02 | 72 | 1018.6 |
| 20260507080144 | 58 | 92 | 0.0 | 0.0 | 0.00 | 0.03 | 0.02 | 71 | 1018.6 |
| 20260507080045 | 58 | 92 | 0.0 | 0.0 | 0.00 | 0.03 | 0.02 | 73 | 1018.6 |
| 20260507075944 | 58 | 142 | 0.0 | 0.0 | 0.00 | 0.03 | 0.02 | 73 | 1018.6 |
| 20260507075847 | 58 | 115 | 0.0 | 0.0 | 0.00 | 0.03 | 0.02 | 73 | 1018.7 |
| 20260507075744 | 58 | 115 | 0.0 | 0.0 | 0.00 | 0.03 | 0.02 | 73 | 1018.7 |
| 20260507075644 | 58 | 115 | 0.0 | 0.0 | 0.00 | 0.03 | 0.02 | 73 | 1018.6 |
| 20260507075544 | 57 | 115 | 0.0 | 0.0 | 0.00 | 0.03 | 0.02 | 73 | 1018.6 |
| 20260507075447 | 57 | 117 | 0.0 | 0.0 | 0.00 | 0.03 | 0.02 | 73 | 1018.7 |
| 20260507075340 | 57 | 94 | 0.0 | 0.0 | 0.00 | 0.03 | 0.02 | 73 | 1018.7 |
| 20260507075240 | 57 | 94 | 0.0 | 0.0 | 0.00 | 0.03 | 0.02 | 74 | 1018.7 |
| 20260507075143 | 57 | 94 | 0.0 | 5.2 | 0.00 | 0.03 | 0.02 | 75 | 1018.7 |
| 20260507075043 | 57 | 109 | 0.0 | 5.2 | 0.00 | 0.03 | 0.02 | 75 | 1018.7 |
| 20260507074943 | 57 | 111 | 0.9 | 5.2 | 0.00 | 0.03 | 0.02 | 75 | 1018.7 |
| 20260507074843 | 57 | 90 | 0.9 | 5.2 | 0.00 | 0.03 | 0.02 | 74 | 1018.7 |
| 20260507074740 | 57 | 94 | 0.9 | 5.2 | 0.00 | 0.03 | 0.02 | 74 | 1018.7 |
| 20260507074642 | 57 | 94 | 0.9 | 5.2 | 0.00 | 0.03 | 0.02 | 75 | 1018.7 |
| 20260507074544 | 57 | 96 | 0.9 | 5.2 | 0.00 | 0.03 | 0.02 | 74 | 1018.7 |
| 20260507074439 | 57 | 110 | 0.9 | 5.2 | 0.00 | 0.03 | 0.02 | 75 | 1018.7 |
| 20260507074343 | 57 | 103 | 0.9 | 5.2 | 0.00 | 0.03 | 0.02 | 76 | 1018.7 |
| 20260507074239 | 57 | 100 | 0.9 | 5.2 | 0.00 | 0.03 | 0.02 | 75 | 1018.6 |
| 20260507074136 | 57 | 171 | 0.0 | 4.3 | 0.00 | 0.03 | 0.02 | 76 | 1018.7 |
| 20260507074033 | 57 | 138 | 0.0 | 4.3 | 0.00 | 0.03 | 0.02 | 76 | 1018.7 |
| 20260507073933 | 57 | 138 | 0.0 | 4.3 | 0.00 | 0.03 | 0.02 | 76 | 1018.6 |
| 20260507073835 | 57 | 55 | 0.0 | 0.0 | 0.00 | 0.03 | 0.02 | 75 | 1018.7 |
| 20260507073733 | 57 | 88 | 0.0 | 0.0 | 0.00 | 0.03 | 0.02 | 75 | 1018.6 |
| 20260507073634 | 57 | 88 | 0.0 | 0.0 | 0.00 | 0.03 | 0.02 | 75 | 1018.7 |
| 20260507073534 | 56 | 88 | 0.0 | 0.0 | 0.00 | 0.03 | 0.02 | 76 | 1018.7 |
| 20260507073435 | 56 | 88 | 0.0 | 0.9 | 0.00 | 0.03 | 0.02 | 76 | 1018.7 |
| 20260507073331 | 56 | 84 | 0.0 | 0.9 | 0.00 | 0.03 | 0.02 | 77 | 1018.7 |
| 20260507073229 | 56 | 108 | 0.0 | 0.9 | 0.00 | 0.03 | 0.02 | 77 | 1018.7 |
| 20260507073132 | 56 | 92 | 0.0 | 0.9 | 0.00 | 0.03 | 0.02 | 77 | 1018.7 |
| 20260507073032 | 56 | 140 | 0.0 | 0.9 | 0.00 | 0.03 | 0.02 | 77 | 1018.7 |
| 20260507072931 | 56 | 140 | 0.0 | 0.9 | 0.00 | 0.03 | 0.02 | 76 | 1018.7 |
| 20260507072828 | 56 | 140 | 0.0 | 0.9 | 0.00 | 0.03 | 0.02 | 77 | 1018.7 |
| 20260507072727 | 56 | 140 | 0.0 | 1.7 | 0.00 | 0.03 | 0.02 | 77 | 1018.7 |
| 20260507072628 | 56 | 140 | 0.0 | 2.6 | 0.00 | 0.03 | 0.02 | 77 | 1018.7 |
| 20260507072529 | 56 | 140 | 0.0 | 3.5 | 0.00 | 0.03 | 0.02 | 77 | 1018.7 |
| 20260507072427 | 56 | 117 | 0.0 | 3.5 | 0.00 | 0.03 | 0.02 | 76 | 1018.7 |
| 20260507072327 | 56 | 128 | 0.0 | 3.5 | 0.00 | 0.03 | 0.02 | 76 | 1018.7 |
| 20260507072223 | 56 | 124 | 0.0 | 3.5 | 0.00 | 0.03 | 0.02 | 76 | 1018.7 |
| 20260507072124 | 56 | 119 | 0.0 | 3.5 | 0.00 | 0.03 | 0.02 | 77 | 1018.7 |
| 20260507072027 | 56 | 144 | 0.0 | 3.5 | 0.00 | 0.03 | 0.02 | 77 | 1018.6 |
| 20260507071925 | 56 | 161 | 0.0 | 3.5 | 0.00 | 0.03 | 0.02 | 77 | 1018.7 |
| 20260507071824 | 56 | 160 | 0.0 | 3.5 | 0.00 | 0.03 | 0.02 | 77 | 1018.7 |
| 20260507071724 | 56 | 138 | 0.0 | 3.5 | 0.00 | 0.03 | 0.02 | 78 | 1018.6 |
| 20260507071624 | 56 | 138 | 0.0 | 3.5 | 0.00 | 0.03 | 0.02 | 77 | 1018.7 |
| 20260507071524 | 56 | 142 | 0.0 | 3.5 | 0.00 | 0.03 | 0.02 | 78 | 1018.7 |
| 20260507071424 | 56 | 144 | 0.0 | 3.5 | 0.00 | 0.03 | 0.02 | 78 | 1018.7 |
| 20260507071325 | 56 | 134 | 0.0 | 0.0 | 0.00 | 0.03 | 0.02 | 78 | 1018.7 |
| 20260507071225 | 56 | 131 | 0.0 | 0.0 | 0.00 | 0.03 | 0.02 | 78 | 1018.7 |
| 20260507071124 | 56 | 155 | 0.0 | 0.0 | 0.00 | 0.03 | 0.02 | 77 | 1018.7 |
| 20260507071025 | 56 | 156 | 0.0 | 0.0 | 0.00 | 0.03 | 0.02 | 77 | 1018.6 |
| 20260507070927 | 56 | 156 | 0.0 | 0.0 | 0.00 | 0.03 | 0.02 | 76 | 1018.6 |
| 20260507070824 | 56 | 156 | 0.0 | 0.0 | 0.00 | 0.03 | 0.02 | 77 | 1018.6 |
| 20260507070725 | 56 | 156 | 0.0 | 0.0 | 0.00 | 0.03 | 0.02 | 78 | 1018.6 |
| 20260507070626 | 56 | 157 | 0.0 | 0.0 | 0.00 | 0.03 | 0.02 | 78 | 1018.6 |
| 20260507070527 | 56 | 160 | 0.0 | 0.0 | 0.00 | 0.03 | 0.02 | 79 | 1018.6 |
| 20260507070424 | 56 | 129 | 0.0 | 0.0 | 0.00 | 0.03 | 0.02 | 79 | 1018.6 |
| 20260507070320 | 56 | 129 | 0.0 | 1.7 | 0.00 | 0.03 | 0.02 | 79 | 1018.7 |
| 20260507070222 | 55 | 114 | 0.0 | 1.7 | 0.00 | 0.03 | 0.02 | 79 | 1018.6 |
| 20260507070120 | 55 | 114 | 0.0 | 1.7 | 0.00 | 0.03 | 0.02 | 78 | 1018.6 |
| 20260507070022 | 55 | 114 | 0.0 | 1.7 | 0.00 | 0.03 | 0.02 | 78 | 1018.6 |
| 20260507065919 | 55 | 114 | 0.0 | 1.7 | 0.00 | 0.03 | 0.02 | 78 | 1018.6 |
| 20260507065813 | 55 | 114 | 0.0 | 1.7 | 0.00 | 0.03 | 0.02 | 80 | 1018.6 |
| 20260507065713 | 55 | 111 | 0.0 | 1.7 | 0.00 | 0.03 | 0.02 | 79 | 1018.6 |
| 20260507065614 | 55 | 111 | 0.0 | 1.7 | 0.00 | 0.03 | 0.02 | 80 | 1018.6 |
| 20260507065512 | 55 | 111 | 0.0 | 1.7 | 0.00 | 0.03 | 0.02 | 80 | 1018.6 |
| 20260507065412 | 55 | 111 | 0.0 | 1.7 | 0.00 | 0.03 | 0.02 | 80 | 1018.6 |
| 20260507065313 | 55 | 108 | 0.0 | 1.7 | 0.00 | 0.03 | 0.02 | 80 | 1018.6 |
| 20260507065213 | 55 | 108 | 0.0 | 1.7 | 0.00 | 0.03 | 0.02 | 80 | 1018.6 |
| 20260507065112 | 55 | 108 | 0.0 | 1.7 | 0.00 | 0.03 | 0.02 | 79 | 1018.5 |
| 20260507065014 | 55 | 108 | 0.0 | 1.7 | 0.00 | 0.03 | 0.02 | 80 | 1018.5 |
| 20260507064913 | 54 | 108 | 0.0 | 1.7 | 0.00 | 0.03 | 0.02 | 80 | 1018.5 |
| 20260507064810 | 54 | 92 | 0.0 | 1.7 | 0.00 | 0.03 | 0.02 | 80 | 1018.5 |
| 20260507064711 | 54 | 65 | 0.0 | 0.0 | 0.00 | 0.03 | 0.02 | 81 | 1018.5 |
| 20260507064604 | 54 | 84 | 0.0 | 0.0 | 0.00 | 0.03 | 0.02 | 81 | 1018.5 |
| 20260507064504 | 54 | 26 | 0.0 | 0.0 | 0.00 | 0.03 | 0.02 | 81 | 1018.5 |
| 20260507064404 | 54 | 100 | 0.0 | 0.0 | 0.00 | 0.03 | 0.02 | 82 | 1018.5 |
| 20260507064308 | 54 | 99 | 0.0 | 0.0 | 0.00 | 0.03 | 0.02 | 82 | 1018.5 |
| 20260507064205 | 54 | 99 | 0.0 | 0.0 | 0.00 | 0.03 | 0.02 | 82 | 1018.5 |
| 20260507064106 | 54 | 99 | 0.0 | 0.0 | 0.00 | 0.03 | 0.02 | 82 | 1018.5 |
| 20260507064005 | 54 | 99 | 0.0 | 0.0 | 0.00 | 0.03 | 0.02 | 83 | 1018.5 |
| 20260507063904 | 54 | 97 | 0.0 | 0.0 | 0.00 | 0.03 | 0.02 | 83 | 1018.5 |
| 20260507063806 | 53 | 96 | 0.0 | 0.0 | 0.00 | 0.03 | 0.02 | 82 | 1018.5 |
| 20260507063704 | 53 | 96 | 0.0 | 0.0 | 0.00 | 0.03 | 0.02 | 83 | 1018.3 |
| 20260507063606 | 53 | 96 | 0.0 | 0.0 | 0.00 | 0.03 | 0.02 | 83 | 1018.5 |
| 20260507063504 | 53 | 120 | 0.0 | 0.0 | 0.00 | 0.03 | 0.02 | 83 | 1018.5 |
| 20260507063407 | 53 | 120 | 0.0 | 0.0 | 0.00 | 0.03 | 0.02 | 83 | 1018.5 |
| 20260507063303 | 53 | 136 | 0.0 | 0.0 | 0.00 | 0.03 | 0.02 | 83 | 1018.3 |
| 20260507063201 | 53 | 136 | 0.0 | 0.0 | 0.00 | 0.03 | 0.02 | 83 | 1018.3 |
| 20260507063102 | 53 | 136 | 0.0 | 0.0 | 0.00 | 0.03 | 0.02 | 83 | 1018.5 |
| 20260507063001 | 53 | 136 | 0.0 | 0.0 | 0.00 | 0.03 | 0.02 | 84 | 1018.5 |
| 20260507062902 | 53 | 136 | 0.0 | 0.0 | 0.00 | 0.03 | 0.02 | 84 | 1018.3 |
| 20260507062804 | 53 | 136 | 0.0 | 0.0 | 0.00 | 0.03 | 0.02 | 85 | 1018.5 |
| 20260507062700 | 53 | 136 | 0.0 | 0.0 | 0.00 | 0.03 | 0.02 | 85 | 1018.5 |
| 20260507062600 | 53 | 136 | 0.0 | 0.0 | 0.00 | 0.03 | 0.02 | 85 | 1018.5 |
| 20260507062501 | 53 | 136 | 0.0 | 0.0 | 0.00 | 0.03 | 0.02 | 86 | 1018.5 |
| 20260507062403 | 52 | 136 | 0.0 | 0.0 | 0.00 | 0.03 | 0.02 | 86 | 1018.3 |
| 20260507062300 | 52 | 136 | 0.0 | 0.0 | 0.00 | 0.03 | 0.02 | 87 | 1018.5 |
| 20260507062200 | 52 | 136 | 0.0 | 0.0 | 0.00 | 0.03 | 0.02 | 86 | 1018.3 |
| 20260507062100 | 52 | 136 | 0.0 | 0.0 | 0.00 | 0.03 | 0.02 | 86 | 1018.5 |
| 20260507062002 | 52 | 136 | 0.0 | 0.0 | 0.00 | 0.03 | 0.02 | 86 | 1018.3 |
| 20260507061900 | 52 | 136 | 0.0 | 0.0 | 0.00 | 0.03 | 0.02 | 86 | 1018.3 |
| 20260507061803 | 51 | 136 | 0.0 | 0.0 | 0.00 | 0.03 | 0.02 | 86 | 1018.3 |
| 20260507061700 | 51 | 136 | 0.0 | 0.0 | 0.00 | 0.03 | 0.02 | 86 | 1018.3 |
| 20260507061559 | 51 | 136 | 0.0 | 0.0 | 0.00 | 0.03 | 0.02 | 86 | 1018.3 |
| 20260507061452 | 51 | 136 | 0.0 | 0.0 | 0.00 | 0.03 | 0.02 | 87 | 1018.3 |
| 20260507061351 | 51 | 136 | 0.0 | 0.0 | 0.00 | 0.03 | 0.02 | 88 | 1018.3 |
| 20260507061254 | 51 | 136 | 0.0 | 0.0 | 0.00 | 0.03 | 0.02 | 88 | 1018.3 |
| 20260507061153 | 51 | 169 | 0.0 | 0.0 | 0.00 | 0.03 | 0.02 | 88 | 1018.3 |
| 20260507061052 | 51 | 169 | 0.0 | 0.0 | 0.00 | 0.03 | 0.02 | 88 | 1018.2 |
| 20260507060952 | 51 | 169 | 0.0 | 0.0 | 0.00 | 0.03 | 0.02 | 88 | 1018.3 |
| 20260507060854 | 51 | 169 | 0.0 | 0.0 | 0.00 | 0.03 | 0.02 | 89 | 1018.3 |
| 20260507060754 | 51 | 169 | 0.0 | 0.0 | 0.00 | 0.03 | 0.02 | 89 | 1018.3 |
| 20260507060652 | 50 | 190 | 0.0 | 0.0 | 0.00 | 0.03 | 0.02 | 89 | 1018.3 |
| 20260507060553 | 50 | 224 | 0.0 | 0.0 | 0.00 | 0.03 | 0.02 | 89 | 1018.3 |
| 20260507060452 | 50 | 224 | 0.0 | 0.0 | 0.00 | 0.03 | 0.02 | 90 | 1018.3 |
| 20260507060351 | 50 | 224 | 0.0 | 0.0 | 0.00 | 0.03 | 0.02 | 90 | 1018.2 |
| 20260507060244 | 50 | 224 | 0.0 | 0.0 | 0.00 | 0.03 | 0.02 | 90 | 1018.2 |
| 20260507060146 | 50 | 224 | 0.0 | 0.0 | 0.00 | 0.03 | 0.02 | 90 | 1018.2 |
| 20260507060044 | 50 | 224 | 0.0 | 0.0 | 0.00 | 0.03 | 0.02 | 90 | 1018.3 |
| 20260507055943 | 50 | 224 | 0.0 | 0.0 | 0.00 | 0.03 | 0.02 | 90 | 1018.3 |
| 20260507055844 | 50 | 224 | 0.0 | 0.0 | 0.00 | 0.03 | 0.02 | 90 | 1018.3 |
| 20260507055745 | 50 | 224 | 0.0 | 0.0 | 0.00 | 0.03 | 0.02 | 91 | 1018.3 |
| 20260507055644 | 50 | 224 | 0.0 | 0.0 | 0.00 | 0.03 | 0.02 | 91 | 1018.2 |
| 20260507055547 | 50 | 224 | 0.0 | 0.0 | 0.00 | 0.03 | 0.02 | 91 | 1018.3 |
| 20260507055446 | 50 | 224 | 0.0 | 0.0 | 0.00 | 0.03 | 0.02 | 91 | 1018.2 |
| 20260507055344 | 50 | 224 | 0.0 | 0.0 | 0.00 | 0.03 | 0.02 | 91 | 1018.3 |
| 20260507055244 | 50 | 224 | 0.0 | 0.0 | 0.00 | 0.03 | 0.02 | 91 | 1018.3 |
| 20260507055144 | 50 | 224 | 0.0 | 0.0 | 0.00 | 0.03 | 0.02 | 91 | 1018.2 |
| 20260507055043 | 49 | 224 | 0.0 | 0.0 | 0.00 | 0.03 | 0.02 | 92 | 1018.2 |
| 20260507054944 | 49 | 224 | 0.0 | 0.0 | 0.00 | 0.03 | 0.02 | 92 | 1018.2 |
| 20260507054844 | 49 | 224 | 0.0 | 0.0 | 0.00 | 0.03 | 0.02 | 92 | 1018.3 |
| 20260507054744 | 49 | 224 | 0.0 | 0.0 | 0.00 | 0.03 | 0.02 | 92 | 1018.2 |
| 20260507054645 | 49 | 224 | 0.0 | 0.0 | 0.00 | 0.03 | 0.02 | 92 | 1018.2 |
| 20260507054544 | 49 | 224 | 0.0 | 0.0 | 0.00 | 0.03 | 0.02 | 92 | 1018.2 |
| 20260507054444 | 49 | 224 | 0.0 | 0.0 | 0.00 | 0.03 | 0.02 | 92 | 1018.2 |
| 20260507054347 | 49 | 224 | 0.0 | 0.0 | 0.00 | 0.03 | 0.02 | 92 | 1018.2 |
| 20260507054248 | 49 | 224 | 0.0 | 0.0 | 0.00 | 0.03 | 0.02 | 92 | 1018.2 |
| 20260507054145 | 49 | 224 | 0.0 | 0.0 | 0.00 | 0.03 | 0.02 | 92 | 1018.2 |
| 20260507054044 | 49 | 224 | 0.0 | 0.0 | 0.00 | 0.03 | 0.02 | 92 | 1018.2 |
| 20260507053946 | 49 | 224 | 0.0 | 0.0 | 0.00 | 0.03 | 0.02 | 92 | 1018.2 |
| 20260507053844 | 49 | 224 | 0.0 | 0.0 | 0.00 | 0.03 | 0.02 | 92 | 1018.2 |
| 20260507053747 | 49 | 224 | 0.0 | 0.0 | 0.00 | 0.03 | 0.02 | 92 | 1018.2 |
| 20260507053640 | 49 | 224 | 0.0 | 0.0 | 0.00 | 0.03 | 0.02 | 92 | 1018.1 |
| 20260507053540 | 49 | 224 | 0.0 | 0.0 | 0.00 | 0.03 | 0.02 | 92 | 1018.1 |
| 20260507053442 | 49 | 224 | 0.0 | 0.0 | 0.00 | 0.03 | 0.02 | 92 | 1018.1 |
| 20260507053341 | 49 | 224 | 0.0 | 0.0 | 0.00 | 0.03 | 0.02 | 92 | 1018.1 |
| 20260507053243 | 48 | 224 | 0.0 | 0.0 | 0.00 | 0.03 | 0.02 | 92 | 1018.1 |
| 20260507053143 | 48 | 224 | 0.0 | 0.0 | 0.00 | 0.03 | 0.02 | 92 | 1018.1 |
| 20260507053040 | 48 | 224 | 0.0 | 0.0 | 0.00 | 0.03 | 0.02 | 92 | 1018.1 |
| 20260507052943 | 48 | 224 | 0.0 | 0.0 | 0.00 | 0.03 | 0.02 | 92 | 1018.1 |
| 20260507052841 | 48 | 224 | 0.0 | 0.0 | 0.00 | 0.03 | 0.02 | 92 | 1018.1 |
| 20260507052740 | 48 | 224 | 0.0 | 0.0 | 0.00 | 0.03 | 0.02 | 92 | 1018.1 |
| 20260507052643 | 48 | 224 | 0.0 | 0.0 | 0.00 | 0.03 | 0.02 | 92 | 1018.1 |
| 20260507052539 | 48 | 224 | 0.0 | 0.0 | 0.00 | 0.03 | 0.02 | 92 | 1018.1 |
| 20260507052432 | 48 | 224 | 0.0 | 0.0 | 0.00 | 0.03 | 0.02 | 92 | 1018.1 |
| 20260507052332 | 48 | 224 | 0.0 | 0.0 | 0.00 | 0.03 | 0.02 | 92 | 1018.1 |
| 20260507052234 | 48 | 224 | 0.0 | 0.0 | 0.00 | 0.03 | 0.02 | 92 | 1018.1 |
| 20260507052134 | 48 | 224 | 0.0 | 0.0 | 0.00 | 0.03 | 0.02 | 92 | 1018.0 |
| 20260507052032 | 48 | 224 | 0.0 | 0.0 | 0.00 | 0.03 | 0.02 | 92 | 1018.1 |
| 20260507051932 | 48 | 224 | 0.0 | 0.0 | 0.00 | 0.03 | 0.02 | 92 | 1018.1 |
| 20260507051830 | 48 | 224 | 0.0 | 0.0 | 0.00 | 0.03 | 0.02 | 92 | 1018.1 |
| 20260507051730 | 48 | 224 | 0.0 | 0.0 | 0.00 | 0.03 | 0.02 | 92 | 1018.1 |
| 20260507051630 | 48 | 224 | 0.0 | 0.0 | 0.00 | 0.03 | 0.02 | 92 | 1018.1 |
| 20260507051533 | 48 | 224 | 0.0 | 0.0 | 0.00 | 0.03 | 0.02 | 92 | 1018.1 |
| 20260507051433 | 48 | 224 | 0.0 | 0.0 | 0.00 | 0.03 | 0.02 | 92 | 1018.1 |
| 20260507051330 | 48 | 224 | 0.0 | 0.0 | 0.00 | 0.03 | 0.02 | 92 | 1018.1 |
| 20260507051230 | 48 | 224 | 0.0 | 0.0 | 0.00 | 0.03 | 0.02 | 92 | 1018.2 |
| 20260507051128 | 48 | 224 | 0.0 | 0.0 | 0.00 | 0.03 | 0.02 | 92 | 1018.1 |
| 20260507051029 | 48 | 224 | 0.0 | 0.0 | 0.00 | 0.03 | 0.02 | 92 | 1018.1 |
| 20260507050926 | 48 | 224 | 0.0 | 0.0 | 0.00 | 0.03 | 0.02 | 92 | 1018.1 |
| 20260507050826 | 48 | 224 | 0.0 | 0.0 | 0.00 | 0.03 | 0.02 | 92 | 1018.1 |
| 20260507050725 | 48 | 224 | 0.0 | 0.0 | 0.00 | 0.03 | 0.02 | 92 | 1018.1 |
| 20260507050624 | 48 | 224 | 0.0 | 0.0 | 0.00 | 0.03 | 0.02 | 92 | 1018.0 |
| 20260507050524 | 47 | 224 | 0.0 | 0.0 | 0.00 | 0.03 | 0.02 | 92 | 1018.0 |
| 20260507050422 | 47 | 224 | 0.0 | 0.0 | 0.00 | 0.03 | 0.02 | 92 | 1018.0 |
| 20260507050322 | 47 | 224 | 0.0 | 0.0 | 0.00 | 0.03 | 0.02 | 92 | 1018.0 |
| 20260507050223 | 47 | 224 | 0.0 | 0.0 | 0.00 | 0.03 | 0.02 | 92 | 1018.0 |
| 20260507050118 | 47 | 224 | 0.0 | 0.0 | 0.00 | 0.03 | 0.02 | 92 | 1018.0 |
| 20260507050017 | 47 | 224 | 0.0 | 0.0 | 0.00 | 0.03 | 0.02 | 92 | 1018.0 |
| 20260507045918 | 47 | 224 | 0.0 | 0.0 | 0.00 | 0.03 | 0.02 | 92 | 1018.0 |
| 20260507045816 | 47 | 224 | 0.0 | 0.0 | 0.00 | 0.03 | 0.02 | 92 | 1018.0 |
| 20260507045710 | 47 | 224 | 0.0 | 0.0 | 0.00 | 0.03 | 0.02 | 92 | 1018.0 |
| 20260507045611 | 47 | 191 | 0.0 | 0.0 | 0.00 | 0.03 | 0.02 | 92 | 1018.0 |
| 20260507045509 | 47 | 191 | 0.0 | 0.0 | 0.00 | 0.03 | 0.02 | 92 | 1018.0 |
| 20260507045408 | 47 | 187 | 0.0 | 0.0 | 0.00 | 0.03 | 0.02 | 92 | 1017.9 |
| 20260507045311 | 47 | 188 | 0.0 | 0.0 | 0.00 | 0.03 | 0.02 | 92 | 1017.9 |
| 20260507045206 | 47 | 188 | 0.0 | 0.0 | 0.00 | 0.03 | 0.02 | 92 | 1017.9 |
| 20260507045105 | 47 | 188 | 0.0 | 0.0 | 0.00 | 0.03 | 0.02 | 92 | 1017.8 |
| 20260507045006 | 47 | 188 | 0.0 | 0.0 | 0.00 | 0.03 | 0.02 | 92 | 1017.9 |
| 20260507044902 | 47 | 187 | 0.0 | 0.0 | 0.00 | 0.03 | 0.02 | 92 | 1017.8 |
| 20260507044804 | 47 | 188 | 0.0 | 0.0 | 0.00 | 0.03 | 0.02 | 92 | 1017.9 |
| 20260507044703 | 47 | 187 | 0.0 | 0.0 | 0.00 | 0.03 | 0.02 | 92 | 1017.8 |
| 20260507044602 | 47 | 188 | 0.0 | 0.0 | 0.00 | 0.03 | 0.02 | 92 | 1017.8 |
| 20260507044501 | 47 | 187 | 0.0 | 0.0 | 0.00 | 0.03 | 0.02 | 92 | 1017.8 |
| 20260507044358 | 47 | 188 | 0.0 | 0.0 | 0.00 | 0.03 | 0.02 | 92 | 1017.8 |
| 20260507044259 | 47 | 187 | 0.0 | 0.0 | 0.00 | 0.03 | 0.02 | 92 | 1017.8 |
| 20260507044155 | 47 | 187 | 0.0 | 0.0 | 0.00 | 0.03 | 0.02 | 92 | 1017.8 |
| 20260507044057 | 47 | 188 | 0.0 | 0.0 | 0.00 | 0.03 | 0.02 | 92 | 1017.8 |
| 20260507043950 | 47 | 187 | 0.0 | 0.0 | 0.00 | 0.03 | 0.02 | 92 | 1017.8 |
| 20260507043850 | 47 | 187 | 0.0 | 0.0 | 0.00 | 0.03 | 0.02 | 92 | 1017.8 |
| 20260507043753 | 47 | 187 | 0.0 | 0.0 | 0.00 | 0.03 | 0.02 | 92 | 1017.8 |
| 20260507043648 | 47 | 187 | 0.0 | 0.0 | 0.00 | 0.03 | 0.02 | 92 | 1017.8 |
| 20260507043546 | 47 | 187 | 0.0 | 0.0 | 0.00 | 0.03 | 0.02 | 92 | 1017.8 |
| 20260507043447 | 47 | 187 | 0.0 | 0.0 | 0.00 | 0.03 | 0.02 | 92 | 1017.7 |
| 20260507043345 | 47 | 187 | 0.0 | 0.0 | 0.00 | 0.03 | 0.02 | 92 | 1017.8 |
| 20260507043244 | 47 | 187 | 0.0 | 0.0 | 0.00 | 0.03 | 0.02 | 92 | 1017.7 |
| 20260507043138 | 47 | 187 | 0.0 | 0.0 | 0.00 | 0.03 | 0.02 | 92 | 1017.7 |
| 20260507043037 | 47 | 187 | 0.0 | 0.0 | 0.00 | 0.03 | 0.02 | 92 | 1017.7 |
| 20260507042936 | 47 | 188 | 0.0 | 0.0 | 0.00 | 0.03 | 0.02 | 92 | 1017.7 |
| 20260507042836 | 47 | 187 | 0.0 | 0.0 | 0.00 | 0.03 | 0.02 | 92 | 1017.7 |
| 20260507042739 | 47 | 187 | 0.0 | 0.0 | 0.00 | 0.03 | 0.02 | 92 | 1017.7 |
| 20260507042631 | 47 | 187 | 0.0 | 0.0 | 0.00 | 0.03 | 0.02 | 92 | 1017.7 |
| 20260507042533 | 47 | 187 | 0.0 | 0.0 | 0.00 | 0.03 | 0.02 | 92 | 1017.7 |
| 20260507042429 | 47 | 187 | 0.0 | 0.0 | 0.00 | 0.03 | 0.02 | 92 | 1017.7 |
| 20260507042330 | 47 | 186 | 0.0 | 0.0 | 0.00 | 0.03 | 0.02 | 92 | 1017.6 |
| 20260507042230 | 47 | 186 | 0.0 | 0.0 | 0.00 | 0.03 | 0.02 | 92 | 1017.6 |
| 20260507042129 | 47 | 186 | 0.0 | 0.0 | 0.00 | 0.03 | 0.02 | 92 | 1017.7 |
| 20260507042030 | 47 | 186 | 0.0 | 0.0 | 0.00 | 0.03 | 0.02 | 92 | 1017.6 |
| 20260507041930 | 47 | 186 | 0.0 | 0.0 | 0.00 | 0.03 | 0.02 | 92 | 1017.6 |
| 20260507041827 | 47 | 186 | 0.0 | 0.0 | 0.00 | 0.03 | 0.02 | 92 | 1017.6 |
| 20260507041727 | 47 | 186 | 0.0 | 0.0 | 0.00 | 0.03 | 0.02 | 92 | 1017.6 |
| 20260507041624 | 47 | 186 | 0.0 | 0.0 | 0.00 | 0.03 | 0.02 | 92 | 1017.6 |
| 20260507041524 | 47 | 186 | 0.0 | 0.0 | 0.00 | 0.03 | 0.02 | 92 | 1017.6 |
| 20260507041425 | 47 | 186 | 0.0 | 0.0 | 0.00 | 0.03 | 0.02 | 92 | 1017.6 |
| 20260507041321 | 47 | 186 | 0.0 | 0.0 | 0.00 | 0.03 | 0.02 | 92 | 1017.6 |
| 20260507041218 | 47 | 186 | 0.0 | 0.0 | 0.00 | 0.03 | 0.02 | 92 | 1017.6 |
| 20260507041112 | 47 | 186 | 0.0 | 0.0 | 0.00 | 0.03 | 0.02 | 92 | 1017.6 |
| 20260507041007 | 47 | 186 | 0.0 | 0.0 | 0.00 | 0.03 | 0.02 | 92 | 1017.6 |
| 20260507040907 | 47 | 186 | 0.0 | 0.0 | 0.00 | 0.03 | 0.02 | 92 | 1017.6 |
| 20260507040802 | 47 | 186 | 0.0 | 0.0 | 0.00 | 0.03 | 0.02 | 92 | 1017.6 |
| 20260507040701 | 47 | 186 | 0.0 | 0.0 | 0.00 | 0.03 | 0.02 | 92 | 1017.6 |
| 20260507040600 | 47 | 186 | 0.0 | 0.0 | 0.00 | 0.03 | 0.02 | 92 | 1017.6 |
| 20260507040500 | 47 | 186 | 0.0 | 0.0 | 0.00 | 0.03 | 0.02 | 92 | 1017.6 |
| 20260507040354 | 47 | 186 | 0.0 | 0.0 | 0.00 | 0.03 | 0.02 | 92 | 1017.6 |
| 20260507040252 | 47 | 186 | 0.0 | 0.0 | 0.00 | 0.03 | 0.02 | 92 | 1017.5 |
| 20260507040150 | 47 | 186 | 0.0 | 0.0 | 0.00 | 0.03 | 0.02 | 92 | 1017.5 |
| 20260507040054 | 47 | 186 | 0.0 | 0.0 | 0.00 | 0.03 | 0.02 | 92 | 1017.6 |
| 20260507035950 | 47 | 186 | 0.0 | 0.0 | 0.00 | 0.03 | 0.02 | 92 | 1017.5 |
| 20260507035847 | 47 | 186 | 0.0 | 0.0 | 0.00 | 0.03 | 0.02 | 92 | 1017.5 |
| 20260507035749 | 47 | 186 | 0.0 | 0.0 | 0.00 | 0.03 | 0.02 | 92 | 1017.5 |
| 20260507035650 | 47 | 186 | 0.0 | 0.0 | 0.00 | 0.03 | 0.02 | 92 | 1017.6 |
| 20260507035551 | 47 | 186 | 0.0 | 0.0 | 0.00 | 0.03 | 0.02 | 92 | 1017.6 |
| 20260507035447 | 47 | 186 | 0.0 | 0.0 | 0.00 | 0.03 | 0.02 | 92 | 1017.5 |
| 20260507035342 | 47 | 186 | 0.0 | 0.0 | 0.00 | 0.03 | 0.02 | 92 | 1017.5 |
| 20260507035239 | 47 | 186 | 0.0 | 0.0 | 0.00 | 0.03 | 0.02 | 92 | 1017.5 |
| 20260507035138 | 47 | 186 | 0.0 | 0.0 | 0.00 | 0.03 | 0.02 | 92 | 1017.6 |
| 20260507035040 | 47 | 186 | 0.0 | 0.0 | 0.00 | 0.03 | 0.02 | 92 | 1017.5 |
| 20260507034936 | 47 | 186 | 0.0 | 0.0 | 0.00 | 0.03 | 0.02 | 92 | 1017.5 |
| 20260507034837 | 47 | 186 | 0.0 | 0.0 | 0.00 | 0.03 | 0.02 | 92 | 1017.5 |
| 20260507034737 | 47 | 186 | 0.0 | 0.0 | 0.00 | 0.03 | 0.02 | 92 | 1017.5 |
| 20260507034630 | 47 | 186 | 0.0 | 0.0 | 0.00 | 0.03 | 0.02 | 92 | 1017.6 |
| 20260507034533 | 47 | 186 | 0.0 | 0.0 | 0.00 | 0.03 | 0.02 | 92 | 1017.5 |
| 20260507034430 | 47 | 186 | 0.0 | 0.0 | 0.00 | 0.03 | 0.02 | 92 | 1017.6 |
| 20260507034327 | 47 | 186 | 0.0 | 0.0 | 0.00 | 0.03 | 0.02 | 92 | 1017.5 |
| 20260507034227 | 47 | 186 | 0.0 | 0.0 | 0.00 | 0.03 | 0.02 | 92 | 1017.5 |
| 20260507034126 | 47 | 186 | 0.0 | 0.0 | 0.00 | 0.03 | 0.02 | 92 | 1017.6 |
| 20260507034026 | 47 | 186 | 0.0 | 0.0 | 0.00 | 0.03 | 0.02 | 92 | 1017.5 |
| 20260507033920 | 47 | 186 | 0.0 | 0.0 | 0.00 | 0.03 | 0.02 | 92 | 1017.5 |
| 20260507033821 | 47 | 186 | 0.0 | 0.0 | 0.00 | 0.03 | 0.02 | 92 | 1017.5 |
| 20260507033721 | 47 | 186 | 0.0 | 0.0 | 0.00 | 0.03 | 0.02 | 92 | 1017.5 |
| 20260507033616 | 47 | 186 | 0.0 | 0.0 | 0.00 | 0.03 | 0.02 | 92 | 1017.5 |
| 20260507033515 | 47 | 186 | 0.0 | 0.0 | 0.00 | 0.03 | 0.02 | 92 | 1017.5 |
| 20260507033414 | 47 | 186 | 0.0 | 0.0 | 0.00 | 0.03 | 0.02 | 92 | 1017.5 |
| 20260507033314 | 47 | 186 | 0.0 | 0.0 | 0.00 | 0.03 | 0.02 | 92 | 1017.5 |
| 20260507033212 | 47 | 186 | 0.0 | 0.0 | 0.00 | 0.03 | 0.02 | 92 | 1017.5 |
| 20260507033112 | 47 | 186 | 0.0 | 0.0 | 0.00 | 0.03 | 0.02 | 92 | 1017.5 |
| 20260507033012 | 47 | 186 | 0.0 | 0.0 | 0.00 | 0.03 | 0.02 | 92 | 1017.5 |
| 20260507032908 | 47 | 186 | 0.0 | 0.0 | 0.00 | 0.03 | 0.02 | 92 | 1017.5 |
| 20260507032811 | 47 | 186 | 0.0 | 0.0 | 0.00 | 0.03 | 0.02 | 92 | 1017.5 |
| 20260507032708 | 47 | 186 | 0.0 | 0.0 | 0.00 | 0.03 | 0.02 | 92 | 1017.5 |
| 20260507032607 | 47 | 155 | 0.0 | 0.0 | 0.00 | 0.03 | 0.02 | 92 | 1017.5 |
| 20260507032505 | 47 | 155 | 0.0 | 0.0 | 0.00 | 0.03 | 0.02 | 92 | 1017.5 |
| 20260507032405 | 47 | 155 | 0.0 | 0.0 | 0.00 | 0.03 | 0.02 | 92 | 1017.5 |
| 20260507032307 | 47 | 155 | 0.0 | 0.0 | 0.00 | 0.03 | 0.02 | 92 | 1017.5 |
| 20260507032204 | 47 | 155 | 0.0 | 0.0 | 0.00 | 0.03 | 0.02 | 92 | 1017.6 |
| 20260507032104 | 47 | 155 | 0.0 | 0.0 | 0.00 | 0.03 | 0.02 | 92 | 1017.6 |
| 20260507032005 | 47 | 155 | 0.0 | 0.0 | 0.00 | 0.03 | 0.02 | 92 | 1017.6 |
| 20260507031904 | 47 | 155 | 0.0 | 0.0 | 0.00 | 0.03 | 0.02 | 92 | 1017.6 |
| 20260507031803 | 47 | 155 | 0.0 | 0.0 | 0.00 | 0.03 | 0.02 | 92 | 1017.6 |
| 20260507031702 | 47 | 155 | 0.0 | 0.0 | 0.00 | 0.03 | 0.02 | 92 | 1017.5 |
| 20260507031601 | 47 | 155 | 0.0 | 0.0 | 0.00 | 0.03 | 0.02 | 92 | 1017.5 |
| 20260507031501 | 47 | 155 | 0.0 | 0.0 | 0.00 | 0.03 | 0.02 | 92 | 1017.5 |
| 20260507031359 | 47 | 155 | 0.0 | 0.0 | 0.00 | 0.03 | 0.02 | 92 | 1017.5 |
| 20260507031301 | 47 | 155 | 0.0 | 0.0 | 0.00 | 0.03 | 0.02 | 92 | 1017.5 |
| 20260507031202 | 47 | 155 | 0.0 | 0.0 | 0.00 | 0.03 | 0.02 | 92 | 1017.5 |
| 20260507031100 | 47 | 155 | 0.0 | 0.0 | 0.00 | 0.03 | 0.02 | 92 | 1017.5 |
| 20260507030953 | 47 | 155 | 0.0 | 0.0 | 0.00 | 0.03 | 0.02 | 92 | 1017.5 |
| 20260507030853 | 47 | 155 | 0.0 | 0.0 | 0.00 | 0.03 | 0.02 | 92 | 1017.4 |
| 20260507030751 | 47 | 155 | 0.0 | 0.0 | 0.00 | 0.03 | 0.02 | 92 | 1017.5 |
| 20260507030649 | 47 | 155 | 0.0 | 0.0 | 0.00 | 0.03 | 0.02 | 92 | 1017.5 |
| 20260507030548 | 47 | 155 | 0.0 | 0.0 | 0.00 | 0.03 | 0.02 | 92 | 1017.5 |
| 20260507030448 | 47 | 155 | 0.0 | 0.0 | 0.00 | 0.03 | 0.02 | 92 | 1017.5 |
| 20260507030350 | 47 | 155 | 0.0 | 0.0 | 0.00 | 0.03 | 0.02 | 92 | 1017.5 |
| 20260507030244 | 47 | 155 | 0.0 | 0.0 | 0.00 | 0.03 | 0.02 | 92 | 1017.5 |
| 20260507030142 | 47 | 155 | 0.0 | 0.0 | 0.00 | 0.03 | 0.02 | 92 | 1017.5 |
| 20260507030040 | 47 | 155 | 0.0 | 0.0 | 0.00 | 0.03 | 0.02 | 92 | 1017.4 |
| 20260507025941 | 47 | 155 | 0.0 | 0.0 | 0.00 | 0.03 | 0.02 | 92 | 1017.5 |
| 20260507025836 | 47 | 155 | 0.0 | 0.0 | 0.00 | 0.03 | 0.02 | 92 | 1017.4 |
| 20260507025740 | 47 | 105 | 0.0 | 0.0 | 0.00 | 0.03 | 0.02 | 92 | 1017.5 |
| 20260507025630 | 47 | 78 | 0.0 | 0.0 | 0.00 | 0.03 | 0.02 | 92 | 1017.4 |
| 20260507025530 | 47 | 78 | 0.0 | 0.0 | 0.00 | 0.03 | 0.02 | 92 | 1017.5 |
| 20260507025431 | 47 | 78 | 0.0 | 0.0 | 0.00 | 0.03 | 0.02 | 92 | 1017.5 |
| 20260507025326 | 47 | 78 | 0.0 | 0.0 | 0.00 | 0.03 | 0.02 | 92 | 1017.5 |
| 20260507025231 | 47 | 78 | 0.0 | 0.0 | 0.00 | 0.03 | 0.02 | 92 | 1017.5 |
| 20260507025124 | 47 | 78 | 0.0 | 0.0 | 0.00 | 0.03 | 0.02 | 92 | 1017.5 |
| 20260507025022 | 47 | 78 | 0.0 | 0.0 | 0.00 | 0.03 | 0.02 | 92 | 1017.5 |
| 20260507024925 | 46 | 78 | 0.0 | 0.0 | 0.00 | 0.03 | 0.02 | 92 | 1017.5 |
| 20260507024820 | 46 | 78 | 0.0 | 0.0 | 0.00 | 0.03 | 0.02 | 92 | 1017.5 |
| 20260507024725 | 46 | 78 | 0.0 | 0.0 | 0.00 | 0.03 | 0.02 | 92 | 1017.4 |
| 20260507024617 | 46 | 78 | 0.0 | 0.0 | 0.00 | 0.03 | 0.02 | 92 | 1017.5 |
| 20260507024517 | 46 | 78 | 0.0 | 0.0 | 0.00 | 0.03 | 0.02 | 92 | 1017.5 |
| 20260507024415 | 46 | 78 | 0.0 | 0.0 | 0.00 | 0.03 | 0.02 | 92 | 1017.5 |
| 20260507024315 | 46 | 78 | 0.0 | 0.0 | 0.00 | 0.03 | 0.02 | 92 | 1017.5 |
| 20260507024211 | 46 | 78 | 0.0 | 0.0 | 0.00 | 0.03 | 0.02 | 92 | 1017.5 |
| 20260507024112 | 46 | 78 | 0.0 | 0.0 | 0.00 | 0.03 | 0.02 | 92 | 1017.5 |
| 20260507024013 | 46 | 78 | 0.0 | 0.0 | 0.00 | 0.03 | 0.02 | 92 | 1017.4 |
| 20260507023912 | 46 | 78 | 0.0 | 0.0 | 0.00 | 0.03 | 0.02 | 92 | 1017.4 |
| 20260507023808 | 46 | 78 | 0.0 | 0.0 | 0.00 | 0.03 | 0.02 | 92 | 1017.4 |
| 20260507023707 | 46 | 78 | 0.0 | 0.0 | 0.00 | 0.03 | 0.02 | 92 | 1017.4 |
| 20260507023605 | 46 | 78 | 0.0 | 0.0 | 0.00 | 0.03 | 0.02 | 92 | 1017.4 |
| 20260507023506 | 46 | 78 | 0.0 | 0.0 | 0.00 | 0.03 | 0.02 | 92 | 1017.4 |
| 20260507023405 | 46 | 78 | 0.0 | 0.0 | 0.00 | 0.03 | 0.02 | 92 | 1017.4 |
| 20260507023307 | 46 | 78 | 0.0 | 0.0 | 0.00 | 0.03 | 0.02 | 92 | 1017.4 |
| 20260507023204 | 46 | 78 | 0.0 | 0.0 | 0.00 | 0.03 | 0.02 | 92 | 1017.4 |
| 20260507023104 | 46 | 78 | 0.0 | 0.0 | 0.00 | 0.03 | 0.02 | 92 | 1017.4 |
| 20260507023004 | 46 | 78 | 0.0 | 0.0 | 0.00 | 0.03 | 0.02 | 92 | 1017.5 |
| 20260507022903 | 46 | 78 | 0.0 | 0.0 | 0.00 | 0.03 | 0.02 | 92 | 1017.4 |
| 20260507022803 | 46 | 78 | 0.0 | 0.0 | 0.00 | 0.03 | 0.02 | 92 | 1017.4 |
| 20260507022705 | 46 | 78 | 0.0 | 0.0 | 0.00 | 0.03 | 0.02 | 92 | 1017.4 |
| 20260507022600 | 46 | 78 | 0.0 | 0.0 | 0.00 | 0.03 | 0.02 | 92 | 1017.4 |
| 20260507022503 | 46 | 78 | 0.0 | 0.0 | 0.00 | 0.03 | 0.02 | 92 | 1017.4 |
| 20260507022402 | 46 | 78 | 0.0 | 0.0 | 0.00 | 0.03 | 0.02 | 92 | 1017.4 |
| 20260507022257 | 46 | 80 | 0.0 | 0.0 | 0.00 | 0.03 | 0.02 | 92 | 1017.3 |
| 20260507022157 | 46 | 80 | 0.0 | 0.0 | 0.00 | 0.03 | 0.02 | 92 | 1017.4 |
| 20260507022057 | 46 | 80 | 0.0 | 0.0 | 0.00 | 0.03 | 0.02 | 92 | 1017.3 |
| 20260507021959 | 46 | 80 | 0.0 | 0.0 | 0.00 | 0.03 | 0.02 | 92 | 1017.4 |
| 20260507021856 | 46 | 80 | 0.0 | 0.0 | 0.00 | 0.03 | 0.02 | 92 | 1017.4 |
| 20260507021756 | 46 | 80 | 0.0 | 0.0 | 0.00 | 0.03 | 0.02 | 92 | 1017.4 |
| 20260507021657 | 46 | 80 | 0.0 | 0.0 | 0.00 | 0.03 | 0.02 | 92 | 1017.4 |
| 20260507021554 | 46 | 80 | 0.0 | 0.0 | 0.00 | 0.03 | 0.02 | 92 | 1017.4 |
| 20260507021451 | 46 | 80 | 0.0 | 0.0 | 0.00 | 0.03 | 0.02 | 92 | 1017.4 |
| 20260507021342 | 46 | 80 | 0.0 | 0.0 | 0.00 | 0.03 | 0.02 | 92 | 1017.4 |
| 20260507021238 | 46 | 80 | 0.0 | 0.0 | 0.00 | 0.03 | 0.02 | 92 | 1017.4 |
| 20260507021135 | 46 | 80 | 0.0 | 0.0 | 0.01 | 0.03 | 0.02 | 91 | 1017.4 |
| 20260507021031 | 46 | 80 | 0.0 | 0.0 | 0.01 | 0.03 | 0.02 | 91 | 1017.4 |
| 20260507020933 | 46 | 80 | 0.0 | 0.0 | 0.01 | 0.03 | 0.02 | 91 | 1017.4 |
| 20260507020832 | 46 | 80 | 0.0 | 0.0 | 0.01 | 0.03 | 0.02 | 91 | 1017.4 |
| 20260507020729 | 46 | 80 | 0.0 | 0.0 | 0.01 | 0.03 | 0.02 | 91 | 1017.4 |
| 20260507020629 | 46 | 80 | 0.0 | 0.0 | 0.01 | 0.03 | 0.02 | 91 | 1017.4 |
| 20260507020532 | 46 | 80 | 0.0 | 0.0 | 0.01 | 0.03 | 0.02 | 91 | 1017.4 |
| 20260507020429 | 46 | 80 | 0.0 | 0.0 | 0.01 | 0.03 | 0.02 | 91 | 1017.4 |
| 20260507020330 | 46 | 80 | 0.0 | 0.0 | 0.01 | 0.03 | 0.02 | 91 | 1017.4 |
| 20260507020225 | 46 | 80 | 0.0 | 0.0 | 0.01 | 0.03 | 0.02 | 91 | 1017.4 |
| 20260507020124 | 46 | 80 | 0.0 | 0.0 | 0.01 | 0.03 | 0.02 | 91 | 1017.4 |
| 20260507020021 | 46 | 80 | 0.0 | 0.0 | 0.01 | 0.03 | 0.02 | 91 | 1017.4 |
| 20260507015920 | 46 | 80 | 0.0 | 0.0 | 0.01 | 0.02 | 0.02 | 91 | 1017.4 |
| 20260507015822 | 46 | 80 | 0.0 | 0.0 | 0.01 | 0.02 | 0.02 | 91 | 1017.4 |
| 20260507015716 | 46 | 80 | 0.0 | 0.0 | 0.01 | 0.02 | 0.02 | 91 | 1017.4 |
| 20260507015617 | 46 | 80 | 0.0 | 0.0 | 0.01 | 0.02 | 0.02 | 91 | 1017.4 |
| 20260507015516 | 46 | 80 | 0.0 | 0.0 | 0.01 | 0.02 | 0.02 | 91 | 1017.3 |
| 20260507015416 | 46 | 80 | 0.0 | 0.0 | 0.01 | 0.02 | 0.02 | 91 | 1017.3 |
| 20260507015308 | 46 | 80 | 0.0 | 0.0 | 0.01 | 0.02 | 0.02 | 91 | 1017.3 |
| 20260507015208 | 46 | 80 | 0.0 | 0.0 | 0.01 | 0.02 | 0.02 | 91 | 1017.3 |
| 20260507015105 | 46 | 80 | 0.0 | 0.0 | 0.01 | 0.02 | 0.02 | 91 | 1017.3 |
| 20260507015005 | 46 | 80 | 0.0 | 0.0 | 0.01 | 0.02 | 0.02 | 91 | 1017.2 |
| 20260507014905 | 46 | 80 | 0.0 | 0.0 | 0.01 | 0.02 | 0.02 | 91 | 1017.2 |
| 20260507014759 | 46 | 80 | 0.0 | 0.0 | 0.01 | 0.02 | 0.02 | 91 | 1017.2 |
| 20260507014703 | 46 | 80 | 0.0 | 0.0 | 0.01 | 0.02 | 0.02 | 91 | 1017.2 |
| 20260507014557 | 46 | 80 | 0.0 | 0.0 | 0.01 | 0.02 | 0.02 | 91 | 1017.1 |
| 20260507014458 | 46 | 80 | 0.0 | 0.0 | 0.01 | 0.02 | 0.02 | 91 | 1017.2 |
| 20260507014356 | 46 | 80 | 0.0 | 0.0 | 0.01 | 0.02 | 0.02 | 91 | 1017.2 |
| 20260507014250 | 46 | 80 | 0.0 | 0.0 | 0.01 | 0.02 | 0.02 | 91 | 1017.1 |
| 20260507014149 | 46 | 80 | 0.0 | 0.0 | 0.01 | 0.02 | 0.02 | 91 | 1017.1 |
| 20260507014045 | 46 | 80 | 0.0 | 0.0 | 0.01 | 0.02 | 0.02 | 91 | 1017.1 |
| 20260507013946 | 46 | 80 | 0.0 | 0.0 | 0.01 | 0.02 | 0.02 | 91 | 1017.2 |
| 20260507013846 | 46 | 80 | 0.0 | 0.0 | 0.01 | 0.02 | 0.02 | 91 | 1017.1 |
| 20260507013745 | 46 | 80 | 0.0 | 0.0 | 0.01 | 0.02 | 0.02 | 91 | 1017.1 |
| 20260507013642 | 47 | 80 | 0.0 | 0.0 | 0.01 | 0.02 | 0.02 | 91 | 1017.2 |
| 20260507013545 | 47 | 80 | 0.0 | 0.0 | 0.01 | 0.02 | 0.02 | 91 | 1017.1 |
| 20260507013441 | 47 | 80 | 0.0 | 0.0 | 0.01 | 0.02 | 0.02 | 91 | 1017.1 |
| 20260507013337 | 47 | 80 | 0.0 | 0.0 | 0.01 | 0.02 | 0.02 | 91 | 1017.0 |
| 20260507013236 | 47 | 80 | 0.0 | 0.0 | 0.01 | 0.02 | 0.02 | 91 | 1017.0 |
| 20260507013142 | 47 | 80 | 0.0 | 0.0 | 0.01 | 0.02 | 0.02 | 91 | 1017.1 |
| 20260507013034 | 47 | 80 | 0.0 | 0.0 | 0.01 | 0.02 | 0.02 | 91 | 1017.1 |
| 20260507012931 | 47 | 80 | 0.0 | 0.0 | 0.01 | 0.02 | 0.02 | 91 | 1017.0 |
| 20260507012832 | 47 | 80 | 0.0 | 0.0 | 0.01 | 0.02 | 0.02 | 91 | 1017.0 |
| 20260507012736 | 47 | 80 | 0.0 | 0.0 | 0.01 | 0.02 | 0.02 | 91 | 1017.0 |
| 20260507012637 | 47 | 80 | 0.0 | 0.0 | 0.01 | 0.02 | 0.02 | 91 | 1017.0 |
| 20260507012531 | 47 | 80 | 0.0 | 0.0 | 0.01 | 0.02 | 0.02 | 91 | 1017.0 |
| 20260507012432 | 47 | 80 | 0.0 | 0.0 | 0.01 | 0.02 | 0.02 | 91 | 1017.0 |
| 20260507012332 | 47 | 80 | 0.0 | 0.0 | 0.01 | 0.02 | 0.02 | 91 | 1017.0 |
| 20260507012232 | 47 | 80 | 0.0 | 0.0 | 0.01 | 0.02 | 0.02 | 91 | 1017.0 |
| 20260507012137 | 47 | 80 | 0.0 | 0.0 | 0.01 | 0.02 | 0.02 | 91 | 1017.0 |
| 20260507012031 | 47 | 80 | 0.0 | 0.0 | 0.01 | 0.02 | 0.02 | 91 | 1016.9 |
| 20260507011932 | 47 | 80 | 0.0 | 0.0 | 0.01 | 0.02 | 0.02 | 91 | 1016.9 |
| 20260507011830 | 47 | 80 | 0.0 | 0.0 | 0.01 | 0.02 | 0.02 | 91 | 1017.0 |
| 20260507011730 | 47 | 80 | 0.0 | 0.0 | 0.01 | 0.02 | 0.02 | 91 | 1017.0 |
| 20260507011629 | 47 | 80 | 0.0 | 0.0 | 0.01 | 0.02 | 0.02 | 91 | 1017.0 |
| 20260507011532 | 47 | 80 | 0.0 | 0.0 | 0.01 | 0.02 | 0.02 | 91 | 1017.0 |
| 20260507011429 | 47 | 80 | 0.0 | 0.0 | 0.01 | 0.02 | 0.02 | 91 | 1017.0 |
| 20260507011330 | 47 | 80 | 0.0 | 0.0 | 0.01 | 0.02 | 0.02 | 91 | 1017.0 |
| 20260507011229 | 47 | 80 | 0.0 | 0.0 | 0.01 | 0.02 | 0.01 | 91 | 1017.0 |
| 20260507011129 | 47 | 80 | 0.0 | 0.0 | 0.00 | 0.02 | 0.01 | 91 | 1017.0 |
| 20260507011029 | 47 | 80 | 0.0 | 0.0 | 0.00 | 0.02 | 0.01 | 91 | 1017.0 |
| 20260507010930 | 47 | 80 | 0.0 | 0.0 | 0.00 | 0.02 | 0.01 | 91 | 1017.1 |
| 20260507010824 | 47 | 80 | 0.0 | 0.0 | 0.00 | 0.02 | 0.01 | 91 | 1017.1 |
| 20260507010724 | 47 | 80 | 0.0 | 0.0 | 0.00 | 0.02 | 0.01 | 91 | 1017.1 |
| 20260507010621 | 47 | 80 | 0.0 | 0.0 | 0.00 | 0.02 | 0.01 | 91 | 1017.1 |
| 20260507010522 | 47 | 80 | 0.0 | 0.0 | 0.00 | 0.02 | 0.01 | 91 | 1017.1 |
| 20260507010424 | 47 | 80 | 0.0 | 0.0 | 0.00 | 0.02 | 0.01 | 91 | 1017.1 |
| 20260507010317 | 47 | 80 | 0.0 | 0.0 | 0.00 | 0.02 | 0.01 | 91 | 1017.1 |
| 20260507010217 | 47 | 80 | 0.0 | 0.0 | 0.00 | 0.02 | 0.01 | 91 | 1017.1 |
| 20260507010118 | 47 | 80 | 0.0 | 0.0 | 0.00 | 0.02 | 0.01 | 91 | 1017.1 |
| 20260507010016 | 47 | 80 | 0.0 | 0.0 | 0.00 | 0.02 | 0.01 | 91 | 1017.0 |
| 20260507005914 | 47 | 80 | 0.0 | 0.0 | 0.00 | 0.02 | 0.01 | 91 | 1017.1 |
| 20260507005808 | 47 | 80 | 0.0 | 0.0 | 0.00 | 0.02 | 0.01 | 91 | 1017.1 |
| 20260507005708 | 47 | 80 | 0.0 | 0.0 | 0.00 | 0.02 | 0.01 | 91 | 1017.1 |
| 20260507005604 | 47 | 80 | 0.0 | 0.0 | 0.00 | 0.02 | 0.01 | 91 | 1017.1 |
| 20260507005502 | 47 | 80 | 0.0 | 0.0 | 0.00 | 0.02 | 0.01 | 91 | 1017.1 |
| 20260507005404 | 47 | 80 | 0.0 | 0.0 | 0.00 | 0.02 | 0.01 | 91 | 1017.1 |
| 20260507005306 | 47 | 80 | 0.0 | 0.0 | 0.00 | 0.02 | 0.01 | 91 | 1017.1 |
| 20260507005202 | 47 | 80 | 0.0 | 0.0 | 0.00 | 0.02 | 0.01 | 91 | 1017.1 |
| 20260507005100 | 47 | 80 | 0.0 | 0.0 | 0.00 | 0.02 | 0.01 | 91 | 1017.0 |
| 20260507005002 | 47 | 80 | 0.0 | 0.0 | 0.00 | 0.02 | 0.01 | 91 | 1017.1 |
| 20260507004857 | 47 | 60 | 0.0 | 0.0 | 0.00 | 0.02 | 0.01 | 91 | 1017.0 |
| 20260507004750 | 47 | 60 | 0.0 | 0.0 | 0.00 | 0.02 | 0.01 | 91 | 1017.0 |
| 20260507004648 | 47 | 60 | 0.0 | 0.0 | 0.00 | 0.02 | 0.01 | 91 | 1017.0 |
| 20260507004549 | 47 | 60 | 0.0 | 0.0 | 0.00 | 0.02 | 0.01 | 91 | 1017.0 |
| 20260507004445 | 47 | 60 | 0.0 | 0.0 | 0.00 | 0.02 | 0.01 | 91 | 1017.0 |
| 20260507004346 | 47 | 56 | 0.0 | 0.0 | 0.00 | 0.02 | 0.01 | 91 | 1017.0 |
| 20260507004242 | 47 | 56 | 0.0 | 0.0 | 0.00 | 0.02 | 0.01 | 91 | 1017.1 |
| 20260507004138 | 47 | 56 | 0.0 | 0.0 | 0.00 | 0.02 | 0.01 | 91 | 1017.1 |
| 20260507004039 | 47 | 56 | 0.0 | 0.0 | 0.00 | 0.02 | 0.01 | 91 | 1017.1 |
| 20260507003939 | 47 | 56 | 0.0 | 0.0 | 0.00 | 0.02 | 0.01 | 91 | 1017.0 |
| 20260507003840 | 47 | 56 | 0.0 | 0.0 | 0.00 | 0.02 | 0.01 | 91 | 1017.0 |
| 20260507003739 | 47 | 56 | 0.0 | 0.0 | 0.00 | 0.02 | 0.01 | 91 | 1017.0 |
| 20260507003642 | 47 | 56 | 0.0 | 0.0 | 0.00 | 0.02 | 0.01 | 91 | 1017.0 |
| 20260507003538 | 47 | 56 | 0.0 | 0.0 | 0.00 | 0.02 | 0.01 | 91 | 1017.1 |
| 20260507003436 | 47 | 56 | 0.0 | 0.0 | 0.00 | 0.02 | 0.01 | 91 | 1017.1 |
| 20260507003336 | 47 | 56 | 0.0 | 0.0 | 0.00 | 0.02 | 0.01 | 91 | 1017.1 |
| 20260507003235 | 47 | 56 | 0.0 | 0.0 | 0.00 | 0.02 | 0.01 | 91 | 1017.0 |
| 20260507003136 | 47 | 56 | 0.0 | 0.0 | 0.00 | 0.02 | 0.01 | 91 | 1017.1 |
| 20260507003031 | 47 | 56 | 0.0 | 0.0 | 0.00 | 0.02 | 0.01 | 91 | 1017.0 |
| 20260507002932 | 47 | 56 | 0.0 | 0.0 | 0.00 | 0.02 | 0.01 | 91 | 1017.1 |
| 20260507002831 | 47 | 56 | 0.0 | 0.0 | 0.00 | 0.02 | 0.01 | 91 | 1017.0 |
| 20260507002735 | 47 | 56 | 0.0 | 0.0 | 0.00 | 0.02 | 0.01 | 91 | 1017.0 |
| 20260507002631 | 47 | 56 | 0.0 | 0.0 | 0.00 | 0.02 | 0.01 | 91 | 1017.0 |
| 20260507002534 | 47 | 56 | 0.0 | 0.0 | 0.00 | 0.02 | 0.01 | 91 | 1017.1 |
| 20260507002431 | 47 | 56 | 0.0 | 0.0 | 0.00 | 0.02 | 0.01 | 91 | 1017.1 |
| 20260507002333 | 47 | 56 | 0.0 | 0.0 | 0.00 | 0.02 | 0.01 | 91 | 1017.1 |
| 20260507002231 | 47 | 57 | 0.0 | 0.0 | 0.00 | 0.02 | 0.01 | 91 | 1017.1 |
| 20260507002131 | 47 | 300 | 0.0 | 0.0 | 0.00 | 0.02 | 0.01 | 91 | 1017.0 |
| 20260507002032 | 47 | 300 | 0.0 | 0.0 | 0.00 | 0.02 | 0.01 | 91 | 1017.1 |
| 20260507001931 | 47 | 300 | 0.0 | 0.0 | 0.00 | 0.02 | 0.01 | 91 | 1017.0 |
| 20260507001831 | 47 | 300 | 0.0 | 0.0 | 0.00 | 0.02 | 0.01 | 91 | 1017.0 |
| 20260507001730 | 47 | 300 | 0.0 | 0.0 | 0.00 | 0.02 | 0.01 | 91 | 1017.0 |
| 20260507001632 | 47 | 300 | 0.0 | 0.0 | 0.00 | 0.02 | 0.01 | 91 | 1017.0 |
| 20260507001532 | 47 | 300 | 0.0 | 0.0 | 0.00 | 0.02 | 0.01 | 91 | 1017.0 |
| 20260507001432 | 47 | 300 | 0.0 | 0.0 | 0.00 | 0.02 | 0.01 | 91 | 1017.0 |
| 20260507001331 | 47 | 300 | 0.0 | 0.0 | 0.00 | 0.02 | 0.01 | 91 | 1017.0 |
| 20260507001232 | 47 | 300 | 0.0 | 0.0 | 0.00 | 0.02 | 0.01 | 91 | 1017.0 |
| 20260507001128 | 47 | 300 | 0.0 | 0.0 | 0.00 | 0.02 | 0.01 | 91 | 1017.0 |
| 20260507001030 | 47 | 300 | 0.0 | 0.0 | 0.00 | 0.02 | 0.01 | 91 | 1017.0 |
| 20260507000928 | 47 | 300 | 0.0 | 0.0 | 0.00 | 0.02 | 0.01 | 91 | 1017.0 |
| 20260507000827 | 47 | 300 | 0.0 | 0.0 | 0.00 | 0.02 | 0.01 | 91 | 1017.0 |
| 20260507000723 | 47 | 300 | 0.0 | 0.0 | 0.00 | 0.02 | 0.01 | 91 | 1017.0 |
| 20260507000618 | 47 | 300 | 0.0 | 0.0 | 0.00 | 0.02 | 0.01 | 91 | 1017.0 |
| 20260507000514 | 47 | 300 | 0.0 | 0.0 | 0.00 | 0.02 | 0.01 | 91 | 1017.0 |
| 20260507000410 | 47 | 300 | 0.0 | 0.0 | 0.00 | 0.02 | 0.01 | 91 | 1016.9 |
| 20260507000310 | 47 | 300 | 0.0 | 0.0 | 0.00 | 0.02 | 0.01 | 90 | 1017.0 |
| 20260507000212 | 47 | 300 | 0.0 | 0.0 | 0.00 | 0.02 | 0.01 | 90 | 1017.0 |
| 20260507000005 | 47 | 300 | 0.0 | 0.0 | 0.00 | 0.02 | 0.01 | 90 | 1017.0 |
| 20260506235903 | 47 | 300 | 0.0 | 0.0 | 0.00 | 0.02 | 0.01 | 90 | 1016.9 |
| 20260506235803 | 47 | 300 | 0.0 | 0.0 | 0.00 | 0.02 | 0.01 | 90 | 1016.9 |
| 20260506235703 | 47 | 300 | 0.0 | 0.0 | 0.00 | 0.02 | 0.01 | 90 | 1016.9 |
| 20260506235604 | 47 | 300 | 0.0 | 0.0 | 0.00 | 0.02 | 0.01 | 90 | 1016.9 |
| 20260506235503 | 47 | 300 | 0.0 | 0.0 | 0.00 | 0.02 | 0.01 | 90 | 1017.0 |
| 20260506235403 | 47 | 300 | 0.0 | 0.0 | 0.00 | 0.02 | 0.01 | 90 | 1016.9 |
| 20260506235306 | 47 | 300 | 0.0 | 0.0 | 0.00 | 0.02 | 0.01 | 90 | 1017.0 |
| 20260506235206 | 47 | 300 | 0.0 | 0.0 | 0.00 | 0.02 | 0.01 | 90 | 1017.0 |
| 20260506235104 | 47 | 300 | 0.0 | 0.0 | 0.00 | 0.02 | 0.01 | 90 | 1017.0 |
| 20260506235003 | 47 | 300 | 0.0 | 0.0 | 0.00 | 0.02 | 0.01 | 90 | 1017.0 |
| 20260506234903 | 47 | 300 | 0.0 | 0.0 | 0.00 | 0.02 | 0.01 | 90 | 1017.0 |
| 20260506234804 | 47 | 300 | 0.0 | 0.0 | 0.00 | 0.02 | 0.01 | 90 | 1016.9 |
| 20260506234704 | 47 | 300 | 0.0 | 0.0 | 0.00 | 0.02 | 0.01 | 90 | 1016.9 |
| 20260506234604 | 47 | 300 | 0.0 | 0.0 | 0.00 | 0.02 | 0.01 | 90 | 1016.9 |
| 20260506234503 | 47 | 300 | 0.0 | 0.0 | 0.00 | 0.02 | 0.01 | 90 | 1017.0 |
| 20260506234403 | 47 | 300 | 0.0 | 0.0 | 0.00 | 0.02 | 0.01 | 90 | 1017.0 |
| 20260506234304 | 47 | 300 | 0.0 | 0.0 | 0.00 | 0.02 | 0.01 | 90 | 1016.9 |
| 20260506234159 | 47 | 300 | 0.0 | 0.0 | 0.00 | 0.02 | 0.01 | 90 | 1017.0 |
| 20260506234059 | 47 | 300 | 0.0 | 0.0 | 0.00 | 0.02 | 0.01 | 90 | 1017.0 |
| 20260506233959 | 47 | 300 | 0.0 | 0.0 | 0.00 | 0.02 | 0.01 | 90 | 1017.0 |
| 20260506233900 | 47 | 300 | 0.0 | 0.0 | 0.00 | 0.02 | 0.01 | 89 | 1017.0 |
| 20260506233759 | 47 | 300 | 0.0 | 0.0 | 0.00 | 0.02 | 0.01 | 89 | 1017.0 |
| 20260506233702 | 47 | 300 | 0.0 | 0.0 | 0.00 | 0.02 | 0.01 | 89 | 1017.0 |
| 20260506233559 | 47 | 300 | 0.0 | 0.0 | 0.00 | 0.02 | 0.01 | 89 | 1017.0 |
| 20260506233459 | 47 | 300 | 0.0 | 0.0 | 0.00 | 0.02 | 0.01 | 89 | 1016.9 |
| 20260506233359 | 47 | 300 | 0.0 | 0.0 | 0.00 | 0.02 | 0.01 | 89 | 1017.0 |
| 20260506233300 | 47 | 300 | 0.0 | 0.0 | 0.00 | 0.02 | 0.01 | 89 | 1017.0 |
| 20260506233159 | 47 | 300 | 0.0 | 0.9 | 0.00 | 0.02 | 0.01 | 89 | 1017.0 |
| 20260506233102 | 47 | 300 | 0.0 | 0.9 | 0.00 | 0.02 | 0.01 | 89 | 1016.9 |
| 20260506232959 | 48 | 300 | 0.0 | 0.9 | 0.01 | 0.02 | 0.01 | 89 | 1017.0 |
| 20260506232901 | 48 | 300 | 0.0 | 0.9 | 0.01 | 0.02 | 0.01 | 89 | 1016.9 |
| 20260506232759 | 48 | 300 | 0.0 | 0.9 | 0.01 | 0.02 | 0.01 | 89 | 1016.9 |
| 20260506232659 | 48 | 300 | 0.0 | 0.9 | 0.01 | 0.02 | 0.01 | 89 | 1016.9 |
| 20260506232559 | 48 | 300 | 0.0 | 0.9 | 0.01 | 0.02 | 0.01 | 89 | 1016.9 |
| 20260506232459 | 48 | 300 | 0.0 | 0.9 | 0.01 | 0.02 | 0.01 | 89 | 1016.9 |
| 20260506232400 | 48 | 300 | 0.0 | 0.9 | 0.01 | 0.02 | 0.01 | 89 | 1016.8 |
| 20260506232255 | 48 | 300 | 0.0 | 0.9 | 0.01 | 0.02 | 0.01 | 89 | 1016.8 |
| 20260506232158 | 48 | 242 | 0.0 | 0.0 | 0.01 | 0.02 | 0.01 | 89 | 1016.8 |
| 20260506232056 | 48 | 242 | 0.0 | 0.0 | 0.01 | 0.02 | 0.01 | 89 | 1016.8 |
| 20260506231954 | 48 | 242 | 0.0 | 0.0 | 0.01 | 0.02 | 0.01 | 89 | 1016.8 |
| 20260506231856 | 48 | 242 | 0.0 | 0.0 | 0.01 | 0.02 | 0.01 | 89 | 1016.7 |
| 20260506231758 | 48 | 242 | 0.0 | 0.0 | 0.01 | 0.02 | 0.01 | 89 | 1016.8 |
| 20260506231654 | 48 | 242 | 0.0 | 0.9 | 0.01 | 0.02 | 0.01 | 89 | 1016.7 |
| 20260506231555 | 48 | 242 | 0.0 | 0.9 | 0.01 | 0.02 | 0.01 | 89 | 1016.7 |
| 20260506231451 | 48 | 242 | 0.0 | 0.9 | 0.01 | 0.02 | 0.01 | 89 | 1016.7 |
| 20260506231352 | 48 | 242 | 0.0 | 0.9 | 0.01 | 0.02 | 0.01 | 89 | 1016.7 |
| 20260506231253 | 48 | 240 | 0.0 | 0.9 | 0.01 | 0.02 | 0.01 | 89 | 1016.7 |
| 20260506231151 | 48 | 296 | 0.0 | 0.9 | 0.01 | 0.02 | 0.01 | 89 | 1016.7 |
| 20260506230947 | 48 | 296 | 0.0 | 0.9 | 0.01 | 0.02 | 0.01 | 89 | 1016.8 |
| 20260506230847 | 48 | 295 | 0.0 | 0.9 | 0.01 | 0.02 | 0.01 | 89 | 1016.8 |
| 20260506230746 | 48 | 258 | 0.0 | 0.9 | 0.01 | 0.02 | 0.01 | 89 | 1016.8 |
| 20260506230647 | 48 | 252 | 0.0 | 0.9 | 0.01 | 0.02 | 0.01 | 89 | 1016.9 |
| 20260506230547 | 48 | 236 | 0.0 | 0.9 | 0.01 | 0.02 | 0.01 | 89 | 1016.8 |
| 20260506230451 | 48 | 288 | 0.0 | 0.9 | 0.01 | 0.02 | 0.01 | 89 | 1016.8 |
| 20260506230347 | 48 | 288 | 0.0 | 0.9 | 0.01 | 0.02 | 0.01 | 89 | 1016.9 |
| 20260506230246 | 48 | 301 | 0.0 | 0.9 | 0.01 | 0.02 | 0.01 | 89 | 1016.9 |
| 20260506230150 | 48 | 301 | 0.0 | 0.9 | 0.01 | 0.02 | 0.01 | 89 | 1016.9 |
| 20260506230047 | 48 | 301 | 0.0 | 0.9 | 0.01 | 0.02 | 0.01 | 89 | 1016.9 |
| 20260506225946 | 48 | 274 | 0.0 | 0.9 | 0.01 | 0.01 | 0.01 | 89 | 1016.8 |
| 20260506225839 | 48 | 248 | 0.0 | 0.9 | 0.01 | 0.01 | 0.01 | 89 | 1016.9 |
| 20260506225741 | 48 | 248 | 0.0 | 0.9 | 0.01 | 0.01 | 0.01 | 89 | 1016.9 |
| 20260506225640 | 48 | 247 | 0.0 | 0.9 | 0.01 | 0.01 | 0.01 | 89 | 1016.9 |
| 20260506225540 | 48 | 213 | 0.0 | 0.9 | 0.02 | 0.01 | 0.01 | 89 | 1016.9 |
| 20260506225442 | 48 | 213 | 0.0 | 0.9 | 0.02 | 0.01 | 0.01 | 89 | 1016.9 |
| 20260506225339 | 48 | 213 | 0.0 | 7.8 | 0.02 | 0.01 | 0.01 | 88 | 1016.9 |
| 20260506225239 | 48 | 212 | 0.0 | 7.8 | 0.02 | 0.01 | 0.01 | 89 | 1016.9 |
| 20260506225140 | 48 | 211 | 0.0 | 7.8 | 0.02 | 0.01 | 0.01 | 89 | 1017.0 |
| 20260506225039 | 48 | 26 | 0.0 | 7.8 | 0.02 | 0.01 | 0.01 | 89 | 1017.0 |
| 20260506224942 | 48 | 223 | 0.0 | 7.8 | 0.02 | 0.01 | 0.01 | 89 | 1016.9 |
| 20260506224839 | 49 | 219 | 0.0 | 7.8 | 0.02 | 0.01 | 0.01 | 89 | 1016.9 |
| 20260506224742 | 49 | 219 | 0.0 | 7.8 | 0.02 | 0.01 | 0.01 | 89 | 1017.0 |
| 20260506224639 | 49 | 254 | 0.0 | 7.8 | 0.02 | 0.01 | 0.01 | 89 | 1016.9 |
| 20260506224539 | 49 | 254 | 0.0 | 7.8 | 0.02 | 0.01 | 0.01 | 89 | 1016.9 |
| 20260506224442 | 49 | 261 | 0.0 | 7.8 | 0.02 | 0.01 | 0.01 | 89 | 1016.9 |
| 20260506224338 | 49 | 241 | 0.0 | 6.1 | 0.02 | 0.01 | 0.01 | 89 | 1017.0 |
| 20260506224238 | 49 | 251 | 0.0 | 3.5 | 0.02 | 0.01 | 0.01 | 89 | 1016.9 |
| 20260506224141 | 49 | 209 | 0.0 | 3.5 | 0.02 | 0.01 | 0.01 | 89 | 1016.9 |
| 20260506224043 | 49 | 286 | 0.0 | 3.5 | 0.02 | 0.01 | 0.01 | 89 | 1016.9 |
| 20260506223935 | 49 | 243 | 0.0 | 3.5 | 0.02 | 0.01 | 0.01 | 89 | 1016.9 |
| 20260506223837 | 49 | 239 | 0.0 | 3.5 | 0.02 | 0.01 | 0.01 | 89 | 1017.0 |
| 20260506223735 | 49 | 229 | 0.0 | 3.5 | 0.02 | 0.01 | 0.01 | 89 | 1016.9 |
| 20260506223635 | 49 | 244 | 0.0 | 3.5 | 0.02 | 0.01 | 0.01 | 89 | 1016.9 |
| 20260506223535 | 49 | 254 | 0.0 | 3.5 | 0.02 | 0.01 | 0.01 | 89 | 1017.0 |
| 20260506223438 | 49 | 240 | 0.0 | 3.5 | 0.02 | 0.01 | 0.01 | 88 | 1017.0 |
| 20260506223335 | 49 | 240 | 0.0 | 3.5 | 0.02 | 0.01 | 0.01 | 89 | 1017.0 |
| 20260506223235 | 49 | 297 | 0.0 | 2.6 | 0.02 | 0.01 | 0.01 | 89 | 1017.0 |
| 20260506223136 | 49 | 229 | 0.0 | 2.6 | 0.02 | 0.01 | 0.01 | 89 | 1017.1 |
| 20260506223035 | 49 | 219 | 0.0 | 2.6 | 0.02 | 0.01 | 0.00 | 89 | 1017.1 |
| 20260506222935 | 49 | 239 | 0.0 | 1.7 | 0.01 | 0.01 | 0.00 | 88 | 1017.1 |
| 20260506222838 | 49 | 257 | 0.0 | 1.7 | 0.01 | 0.01 | 0.00 | 88 | 1017.1 |
| 20260506222735 | 49 | 256 | 0.0 | 1.7 | 0.01 | 0.01 | 0.00 | 88 | 1017.1 |
| 20260506222636 | 49 | 256 | 0.0 | 1.7 | 0.01 | 0.01 | 0.00 | 88 | 1017.1 |
| 20260506222536 | 49 | 233 | 0.0 | 1.7 | 0.01 | 0.01 | 0.00 | 88 | 1017.1 |
| 20260506222437 | 49 | 241 | 0.0 | 0.9 | 0.01 | 0.01 | 0.00 | 88 | 1017.1 |
| 20260506222335 | 49 | 236 | 0.0 | 0.9 | 0.01 | 0.01 | 0.00 | 88 | 1017.1 |
| 20260506222236 | 49 | 200 | 0.0 | 0.9 | 0.01 | 0.01 | 0.00 | 88 | 1017.1 |
| 20260506222135 | 49 | 200 | 0.0 | 0.9 | 0.01 | 0.01 | 0.00 | 88 | 1017.1 |
| 20260506222102 | 50 | 200 | 0.0 | 0.9 | 0.01 | 0.01 | 0.00 | 88 | 1017.1 |
| 20260506221933 | 50 | 200 | 0.0 | 0.9 | 0.01 | 0.01 | 0.00 | 88 | 1017.1 |
| 20260506221831 | 50 | 292 | 0.0 | 0.9 | 0.01 | 0.01 | 0.00 | 88 | 1017.1 |
| 20260506221731 | 50 | 234 | 0.0 | 0.9 | 0.01 | 0.01 | 0.00 | 88 | 1017.2 |
| 20260506221632 | 50 | 234 | 0.0 | 0.9 | 0.01 | 0.01 | 0.00 | 88 | 1017.2 |
| 20260506221534 | 50 | 234 | 0.0 | 0.9 | 0.01 | 0.01 | 0.00 | 88 | 1017.2 |
| 20260506221432 | 50 | 234 | 0.0 | 0.9 | 0.01 | 0.01 | 0.00 | 88 | 1017.2 |
| 20260506221331 | 50 | 234 | 0.0 | 0.9 | 0.01 | 0.01 | 0.00 | 88 | 1017.1 |
| 20260506221231 | 50 | 234 | 0.0 | 0.9 | 0.01 | 0.01 | 0.00 | 88 | 1017.2 |
| 20260506221134 | 50 | 240 | 0.0 | 0.9 | 0.01 | 0.01 | 0.00 | 88 | 1017.1 |
| 20260506221031 | 50 | 242 | 0.0 | 0.9 | 0.01 | 0.01 | 0.00 | 88 | 1017.2 |
| 20260506220932 | 50 | 265 | 0.0 | 0.9 | 0.01 | 0.01 | 0.00 | 88 | 1017.2 |
| 20260506220831 | 50 | 281 | 0.0 | 0.0 | 0.01 | 0.01 | 0.00 | 88 | 1017.2 |
| 20260506220733 | 50 | 319 | 0.0 | 0.0 | 0.01 | 0.01 | 0.00 | 88 | 1017.2 |
| 20260506220631 | 50 | 321 | 0.0 | 0.0 | 0.01 | 0.01 | 0.00 | 88 | 1017.2 |
| 20260506220531 | 50 | 321 | 0.0 | 0.0 | 0.01 | 0.01 | 0.00 | 89 | 1017.1 |
| 20260506220431 | 50 | 321 | 0.0 | 0.0 | 0.01 | 0.01 | 0.00 | 89 | 1017.2 |
| 20260506220334 | 50 | 355 | 0.0 | 0.0 | 0.01 | 0.01 | 0.00 | 89 | 1017.2 |
| 20260506220233 | 50 | 327 | 0.0 | 0.0 | 0.01 | 0.01 | 0.00 | 89 | 1017.2 |
| 20260506220127 | 50 | 328 | 0.0 | 0.0 | 0.01 | 0.01 | 0.00 | 89 | 1017.1 |
| 20260506220026 | 50 | 340 | 0.0 | 0.0 | 0.01 | 0.01 | 0.00 | 89 | 1017.1 |
| 20260506215928 | 50 | 219 | 0.0 | 0.0 | 0.01 | 0.00 | 0.01 | 89 | 1017.2 |
| 20260506215829 | 51 | 219 | 0.0 | 0.0 | 0.01 | 0.00 | 0.01 | 88 | 1017.1 |
| 20260506215725 | 50 | 219 | 0.0 | 0.0 | 0.01 | 0.00 | 0.01 | 88 | 1017.1 |
| 20260506215622 | 50 | 219 | 0.0 | 0.0 | 0.01 | 0.00 | 0.00 | 88 | 1017.1 |
| 20260506215520 | 51 | 219 | 0.0 | 0.0 | 0.00 | 0.00 | 0.00 | 88 | 1017.0 |
| 20260506215423 | 51 | 219 | 0.0 | 0.0 | 0.00 | 0.00 | 0.00 | 88 | 1017.1 |
| 20260506215318 | 51 | 219 | 0.0 | 0.0 | 0.00 | 0.00 | 0.00 | 88 | 1017.1 |
| 20260506215218 | 51 | 219 | 0.0 | 0.0 | 0.00 | 0.00 | 0.00 | 88 | 1017.0 |
| 20260506215118 | 51 | 219 | 0.0 | 0.0 | 0.00 | 0.00 | 0.00 | 88 | 1017.0 |
| 20260506215016 | 51 | 219 | 0.0 | 0.0 | 0.00 | 0.00 | 0.00 | 88 | 1017.1 |
| 20260506214914 | 51 | 219 | 0.0 | 0.0 | 0.00 | 0.00 | 0.00 | 88 | 1017.1 |
| 20260506214816 | 51 | 219 | 0.0 | 0.0 | 0.00 | 0.00 | 0.00 | 88 | 1017.0 |
| 20260506214712 | 51 | 219 | 0.0 | 0.0 | 0.00 | 0.00 | 0.00 | 88 | 1017.0 |
| 20260506214613 | 51 | 219 | 0.0 | 0.0 | 0.00 | 0.00 | 0.00 | 88 | 1017.0 |
| 20260506214514 | 51 | 219 | 0.0 | 0.0 | 0.00 | 0.00 | 0.00 | 88 | 1017.0 |
| 20260506214415 | 51 | 219 | 0.0 | 0.0 | 0.00 | 0.00 | 0.00 | 88 | 1016.9 |
| 20260506214313 | 51 | 219 | 0.0 | 0.0 | 0.00 | 0.00 | 0.00 | 88 | 1016.9 |
| 20260506214208 | 51 | 219 | 0.0 | 0.0 | 0.00 | 0.00 | 0.00 | 88 | 1016.9 |
| 20260506214109 | 51 | 219 | 0.0 | 0.0 | 0.00 | 0.00 | 0.00 | 88 | 1016.9 |
| 20260506214006 | 51 | 219 | 0.0 | 0.0 | 0.00 | 0.00 | 0.00 | 88 | 1016.8 |
| 20260506213904 | 51 | 219 | 0.0 | 0.0 | 0.00 | 0.00 | 0.00 | 88 | 1016.8 |
| 20260506213804 | 51 | 219 | 0.0 | 0.0 | 0.00 | 0.00 | 0.00 | 87 | 1016.8 |
| 20260506213705 | 51 | 219 | 0.0 | 0.0 | 0.00 | 0.00 | 0.00 | 87 | 1016.8 |
| 20260506213605 | 51 | 219 | 0.0 | 0.0 | 0.00 | 0.00 | 0.00 | 87 | 1016.8 |
| 20260506213503 | 51 | 219 | 0.0 | 0.0 | 0.00 | 0.00 | 0.00 | 87 | 1016.8 |
| 20260506213405 | 51 | 219 | 0.0 | 0.0 | 0.00 | 0.00 | 0.00 | 87 | 1016.7 |
| 20260506213305 | 51 | 219 | 0.0 | 0.0 | 0.00 | 0.00 | 0.00 | 87 | 1016.8 |
| 20260506213202 | 51 | 219 | 0.0 | 0.0 | 0.00 | 0.00 | 0.00 | 87 | 1016.8 |
| 20260506213101 | 51 | 219 | 0.0 | 0.0 | 0.00 | 0.00 | 0.00 | 87 | 1016.7 |
| 20260506213003 | 51 | 219 | 0.0 | 0.0 | 0.00 | 0.00 | 0.00 | 88 | 1016.8 |
| 20260506212854 | 51 | 219 | 0.0 | 0.0 | 0.00 | 0.00 | 0.00 | 88 | 1016.7 |
| 20260506212755 | 51 | 219 | 0.0 | 0.0 | 0.00 | 0.00 | 0.00 | 88 | 1016.7 |
| 20260506212652 | 51 | 219 | 0.0 | 0.0 | 0.00 | 0.00 | 0.00 | 88 | 1016.7 |
| 20260506212549 | 51 | 219 | 0.0 | 0.0 | 0.00 | 0.00 | 0.00 | 88 | 1016.7 |
| 20260506212451 | 51 | 219 | 0.0 | 0.0 | 0.00 | 0.00 | 0.00 | 88 | 1016.7 |
| 20260506212345 | 51 | 219 | 0.0 | 0.0 | 0.00 | 0.00 | 0.00 | 88 | 1016.7 |
| 20260506212243 | 51 | 219 | 0.0 | 0.0 | 0.00 | 0.00 | 0.00 | 88 | 1016.7 |
| 20260506212143 | 51 | 219 | 0.0 | 0.0 | 0.00 | 0.00 | 0.00 | 88 | 1016.6 |
| 20260506212039 | 51 | 219 | 0.0 | 0.0 | 0.00 | 0.00 | 0.00 | 88 | 1016.7 |
| 20260506211940 | 51 | 219 | 0.0 | 0.0 | 0.00 | 0.00 | 0.00 | 88 | 1016.6 |
| 20260506211832 | 51 | 219 | 0.0 | 0.0 | 0.00 | 0.00 | 0.00 | 88 | 1016.7 |
| 20260506211733 | 51 | 219 | 0.0 | 0.0 | 0.00 | 0.00 | 0.00 | 88 | 1016.7 |
| 20260506211630 | 51 | 219 | 0.0 | 0.0 | 0.00 | 0.00 | 0.00 | 88 | 1016.7 |
| 20260506211530 | 51 | 219 | 0.0 | 0.0 | 0.00 | 0.00 | 0.00 | 88 | 1016.7 |
| 20260506211429 | 51 | 219 | 0.0 | 0.0 | 0.00 | 0.00 | 0.00 | 88 | 1016.7 |
| 20260506211333 | 51 | 219 | 0.0 | 0.0 | 0.00 | 0.00 | 0.00 | 88 | 1016.6 |
| 20260506211231 | 51 | 219 | 0.0 | 0.0 | 0.00 | 0.00 | 0.00 | 88 | 1016.7 |
| 20260506211132 | 51 | 219 | 0.0 | 0.0 | 0.00 | 0.00 | 0.00 | 88 | 1016.7 |
| 20260506211030 | 51 | 219 | 0.0 | 0.0 | 0.00 | 0.00 | 0.00 | 88 | 1016.7 |
| 20260506210931 | 51 | 219 | 0.0 | 0.0 | 0.00 | 0.00 | 0.00 | 88 | 1016.7 |
| 20260506210830 | 51 | 219 | 0.0 | 0.0 | 0.00 | 0.00 | 0.00 | 88 | 1016.7 |
| 20260506210733 | 51 | 219 | 0.0 | 0.0 | 0.00 | 0.00 | 0.00 | 88 | 1016.7 |
| 20260506210629 | 51 | 219 | 0.0 | 0.0 | 0.00 | 0.00 | 0.00 | 88 | 1016.6 |
| 20260506210529 | 51 | 219 | 0.0 | 0.0 | 0.00 | 0.00 | 0.00 | 88 | 1016.6 |
| 20260506210431 | 51 | 219 | 0.0 | 0.0 | 0.00 | 0.00 | 0.00 | 88 | 1016.6 |
| 20260506210330 | 51 | 219 | 0.0 | 0.0 | 0.00 | 0.00 | 0.00 | 88 | 1016.6 |
| 20260506210229 | 51 | 219 | 0.0 | 0.0 | 0.00 | 0.00 | 0.00 | 88 | 1016.6 |
| 20260506210130 | 51 | 219 | 0.0 | 0.0 | 0.00 | 0.00 | 0.00 | 88 | 1016.6 |
| 20260506210029 | 50 | 219 | 0.0 | 0.0 | 0.00 | 0.00 | 0.00 | 88 | 1016.6 |
| 20260506205932 | 50 | 219 | 0.0 | 0.0 | 0.00 | 0.00 | 0.00 | 88 | 1016.6 |
| 20260506205829 | 50 | 219 | 0.0 | 0.0 | 0.00 | 0.00 | 0.00 | 88 | 1016.6 |
| 20260506205728 | 50 | 219 | 0.0 | 0.0 | 0.00 | 0.00 | 0.00 | 88 | 1016.6 |
| 20260506205628 | 50 | 219 | 0.0 | 0.0 | 0.00 | 0.00 | 0.00 | 88 | 1016.6 |
| 20260506205530 | 51 | 219 | 0.0 | 0.0 | 0.00 | 0.00 | 0.00 | 88 | 1016.6 |
| 20260506205423 | 50 | 219 | 0.0 | 0.0 | 0.00 | 0.00 | 0.00 | 88 | 1016.6 |
| 20260506205320 | 50 | 219 | 0.0 | 0.0 | 0.00 | 0.00 | 0.00 | 88 | 1016.6 |
| 20260506205221 | 51 | 219 | 0.0 | 0.0 | 0.00 | 0.00 | 0.00 | 88 | 1016.6 |
| 20260506205123 | 51 | 219 | 0.0 | 0.0 | 0.00 | 0.00 | 0.00 | 87 | 1016.6 |
| 20260506205021 | 51 | 219 | 0.0 | 0.0 | 0.00 | 0.00 | 0.00 | 87 | 1016.6 |
| 20260506204921 | 51 | 219 | 0.0 | 0.0 | 0.00 | 0.00 | 0.00 | 87 | 1016.6 |
| 20260506204821 | 51 | 219 | 0.0 | 0.0 | 0.00 | 0.00 | 0.00 | 87 | 1016.6 |
| 20260506204718 | 51 | 219 | 0.0 | 0.0 | 0.00 | 0.00 | 0.00 | 87 | 1016.6 |
| 20260506204616 | 51 | 219 | 0.0 | 0.0 | 0.00 | 0.00 | 0.00 | 87 | 1016.6 |
| 20260506204517 | 51 | 219 | 0.0 | 0.0 | 0.00 | 0.00 | 0.00 | 87 | 1016.6 |
| 20260506204417 | 51 | 219 | 0.0 | 0.0 | 0.00 | 0.00 | 0.00 | 87 | 1016.6 |
| 20260506204316 | 51 | 219 | 0.0 | 0.0 | 0.00 | 0.00 | 0.00 | 87 | 1016.6 |
| 20260506204216 | 51 | 219 | 0.0 | 0.0 | 0.00 | 0.00 | 0.00 | 87 | 1016.6 |
| 20260506204119 | 51 | 219 | 0.0 | 0.0 | 0.00 | 0.00 | 0.00 | 87 | 1016.6 |
| 20260506204014 | 51 | 219 | 0.0 | 0.0 | 0.00 | 0.00 | 0.00 | 87 | 1016.6 |
| 20260506203915 | 51 | 219 | 0.0 | 0.0 | 0.00 | 0.00 | 0.00 | 87 | 1016.6 |
| 20260506203814 | 51 | 219 | 0.0 | 0.0 | 0.00 | 0.00 | 0.00 | 87 | 1016.6 |
| 20260506203707 | 51 | 219 | 0.0 | 0.0 | 0.00 | 0.00 | 0.00 | 87 | 1016.5 |
| 20260506203601 | 51 | 219 | 0.0 | 0.0 | 0.00 | 0.00 | 0.00 | 87 | 1016.5 |
| 20260506203503 | 51 | 219 | 0.0 | 0.0 | 0.00 | 0.00 | 0.00 | 87 | 1016.5 |
| 20260506203403 | 51 | 219 | 0.0 | 0.0 | 0.00 | 0.00 | 0.00 | 87 | 1016.5 |
| 20260506203305 | 51 | 219 | 0.0 | 0.0 | 0.00 | 0.00 | 0.00 | 87 | 1016.5 |
| 20260506203205 | 51 | 219 | 0.0 | 0.0 | 0.00 | 0.00 | 0.00 | 87 | 1016.5 |
| 20260506203101 | 51 | 219 | 0.0 | 0.0 | 0.00 | 0.00 | 0.00 | 87 | 1016.5 |
| 20260506203003 | 51 | 219 | 0.0 | 0.0 | 0.00 | 0.00 | 0.00 | 87 | 1016.5 |
| 20260506202901 | 51 | 219 | 0.0 | 0.0 | 0.00 | 0.00 | 0.00 | 87 | 1016.5 |
| 20260506202803 | 51 | 219 | 0.0 | 0.0 | 0.00 | 0.00 | 0.00 | 87 | 1016.4 |
| 20260506202704 | 51 | 219 | 0.0 | 0.0 | 0.00 | 0.00 | 0.00 | 87 | 1016.4 |
| 20260506202601 | 51 | 219 | 0.0 | 0.0 | 0.00 | 0.00 | 0.00 | 87 | 1016.4 |
| 20260506202502 | 51 | 219 | 0.0 | 0.0 | 0.00 | 0.00 | 0.00 | 87 | 1016.4 |
| 20260506202401 | 51 | 219 | 0.0 | 0.0 | 0.00 | 0.00 | 0.00 | 87 | 1016.4 |
| 20260506202258 | 51 | 219 | 0.0 | 0.0 | 0.00 | 0.00 | 0.00 | 87 | 1016.3 |
| 20260506202158 | 51 | 219 | 0.0 | 0.0 | 0.00 | 0.00 | 0.00 | 87 | 1016.4 |
| 20260506202057 | 51 | 219 | 0.0 | 0.0 | 0.00 | 0.00 | 0.00 | 87 | 1016.4 |
| 20260506201950 | 51 | 219 | 0.0 | 0.0 | 0.00 | 0.00 | 0.00 | 87 | 1016.3 |
| 20260506201850 | 51 | 219 | 0.0 | 0.0 | 0.00 | 0.00 | 0.00 | 87 | 1016.3 |
| 20260506201751 | 51 | 219 | 0.0 | 0.0 | 0.00 | 0.00 | 0.00 | 87 | 1016.3 |
| 20260506201653 | 51 | 219 | 0.0 | 0.0 | 0.00 | 0.00 | 0.00 | 86 | 1016.3 |
| 20260506201551 | 51 | 219 | 0.0 | 0.0 | 0.00 | 0.00 | 0.00 | 87 | 1016.3 |
| 20260506201453 | 51 | 219 | 0.0 | 0.0 | 0.00 | 0.00 | 0.00 | 86 | 1016.1 |
| 20260506201351 | 51 | 219 | 0.0 | 0.0 | 0.00 | 0.00 | 0.00 | 86 | 1016.1 |
| 20260506201251 | 51 | 219 | 0.0 | 0.0 | 0.00 | 0.00 | 0.00 | 86 | 1016.1 |
| 20260506201150 | 51 | 219 | 0.0 | 0.0 | 0.00 | 0.00 | 0.00 | 86 | 1016.3 |
| 20260506201049 | 51 | 219 | 0.0 | 0.0 | 0.00 | 0.00 | 0.00 | 86 | 1016.1 |
| 20260506200951 | 51 | 219 | 0.0 | 0.0 | 0.00 | 0.00 | 0.00 | 86 | 1016.1 |
| 20260506200852 | 51 | 219 | 0.0 | 0.0 | 0.00 | 0.00 | 0.00 | 86 | 1016.1 |
| 20260506200750 | 51 | 219 | 0.0 | 0.0 | 0.00 | 0.00 | 0.00 | 86 | 1016.1 |
| 20260506200652 | 51 | 219 | 0.0 | 0.0 | 0.00 | 0.00 | 0.00 | 86 | 1016.1 |
| 20260506200550 | 51 | 219 | 0.0 | 0.0 | 0.00 | 0.00 | 0.00 | 86 | 1016.1 |
| 20260506200453 | 51 | 219 | 0.0 | 0.0 | 0.00 | 0.00 | 0.00 | 86 | 1016.1 |
| 20260506200350 | 51 | 219 | 0.0 | 0.0 | 0.00 | 0.00 | 0.00 | 86 | 1016.1 |
| 20260506200250 | 51 | 219 | 0.0 | 0.0 | 0.00 | 0.00 | 0.00 | 86 | 1016.0 |
| 20260506200153 | 51 | 219 | 0.0 | 0.0 | 0.00 | 0.00 | 0.00 | 85 | 1016.0 |
| 20260506200046 | 51 | 219 | 0.0 | 0.0 | 0.00 | 0.00 | 0.00 | 85 | 1016.0 |
| 20260506195949 | 51 | 219 | 0.0 | 0.0 | 0.00 | 0.00 | 0.00 | 85 | 1016.0 |
| 20260506195847 | 51 | 203 | 0.0 | 0.0 | 0.00 | 0.00 | 0.00 | 85 | 1016.0 |
| 20260506195746 | 51 | 199 | 0.0 | 0.0 | 0.00 | 0.00 | 0.00 | 85 | 1016.0 |
| 20260506195646 | 51 | 199 | 0.0 | 0.0 | 0.00 | 0.00 | 0.00 | 85 | 1016.0 |
| 20260506195547 | 51 | 199 | 0.0 | 0.0 | 0.00 | 0.00 | 0.00 | 85 | 1015.9 |
| 20260506195446 | 51 | 199 | 0.0 | 0.0 | 0.00 | 0.00 | 0.00 | 85 | 1015.9 |
| 20260506195348 | 51 | 199 | 0.0 | 0.0 | 0.00 | 0.00 | 0.00 | 85 | 1015.9 |
| 20260506195249 | 51 | 199 | 0.0 | 0.0 | 0.00 | 0.00 | 0.00 | 85 | 1015.9 |
| 20260506195146 | 51 | 199 | 0.0 | 0.0 | 0.00 | 0.00 | 0.00 | 85 | 1015.9 |
| 20260506195049 | 51 | 199 | 0.0 | 0.0 | 0.00 | 0.00 | 0.00 | 85 | 1015.9 |
| 20260506194946 | 51 | 199 | 0.0 | 0.0 | 0.00 | 0.00 | 0.00 | 85 | 1015.8 |
| 20260506194845 | 51 | 199 | 0.0 | 0.0 | 0.00 | 0.00 | 0.00 | 85 | 1015.8 |
| 20260506194747 | 51 | 199 | 0.0 | 0.0 | 0.00 | 0.00 | 0.00 | 85 | 1015.8 |
| 20260506194649 | 51 | 199 | 0.0 | 0.0 | 0.00 | 0.00 | 0.00 | 84 | 1015.8 |
| 20260506194547 | 51 | 199 | 0.0 | 0.0 | 0.00 | 0.00 | 0.00 | 84 | 1015.8 |
| 20260506194448 | 51 | 199 | 0.0 | 0.0 | 0.00 | 0.00 | 0.00 | 84 | 1015.7 |
| 20260506194346 | 51 | 199 | 0.0 | 0.0 | 0.00 | 0.00 | 0.00 | 84 | 1015.7 |
| 20260506194249 | 51 | 199 | 0.0 | 0.0 | 0.00 | 0.00 | 0.00 | 84 | 1015.7 |
| 20260506194142 | 51 | 199 | 0.0 | 0.0 | 0.00 | 0.00 | 0.00 | 84 | 1015.7 |
| 20260506194043 | 51 | 199 | 0.0 | 0.0 | 0.00 | 0.00 | 0.00 | 84 | 1015.7 |
| 20260506193943 | 51 | 199 | 0.0 | 0.0 | 0.00 | 0.00 | 0.00 | 84 | 1015.7 |
| 20260506193842 | 51 | 199 | 0.0 | 0.0 | 0.00 | 0.00 | 0.00 | 84 | 1015.7 |
| 20260506193744 | 51 | 199 | 0.0 | 0.0 | 0.00 | 0.00 | 0.00 | 83 | 1015.7 |
| 20260506193647 | 51 | 199 | 0.0 | 0.0 | 0.00 | 0.00 | 0.00 | 83 | 1015.6 |
| 20260506193542 | 51 | 199 | 0.0 | 0.0 | 0.00 | 0.00 | 0.00 | 83 | 1015.6 |
| 20260506193444 | 51 | 199 | 0.0 | 0.0 | 0.00 | 0.00 | 0.00 | 83 | 1015.6 |
| 20260506193342 | 51 | 199 | 0.0 | 0.0 | 0.00 | 0.00 | 0.00 | 83 | 1015.6 |
| 20260506193242 | 51 | 199 | 0.0 | 0.0 | 0.00 | 0.00 | 0.00 | 83 | 1015.6 |
| 20260506193145 | 51 | 199 | 0.0 | 0.0 | 0.00 | 0.00 | 0.00 | 83 | 1015.6 |
| 20260506193042 | 52 | 199 | 0.0 | 0.0 | 0.00 | 0.00 | 0.00 | 83 | 1015.5 |
| 20260506192934 | 52 | 199 | 0.0 | 0.0 | 0.00 | 0.00 | 0.00 | 83 | 1015.6 |
| 20260506192835 | 52 | 199 | 0.0 | 0.0 | 0.00 | 0.00 | 0.00 | 83 | 1015.5 |
| 20260506192737 | 52 | 199 | 0.0 | 0.0 | 0.00 | 0.00 | 0.00 | 83 | 1015.5 |
| 20260506192634 | 52 | 199 | 0.0 | 0.0 | 0.00 | 0.00 | 0.00 | 83 | 1015.5 |
| 20260506192534 | 52 | 199 | 0.0 | 0.0 | 0.00 | 0.00 | 0.00 | 83 | 1015.5 |
| 20260506192434 | 52 | 199 | 0.0 | 0.0 | 0.00 | 0.00 | 0.00 | 83 | 1015.4 |
| 20260506192334 | 52 | 199 | 0.0 | 0.0 | 0.00 | 0.00 | 0.00 | 83 | 1015.4 |
| 20260506192237 | 52 | 199 | 0.0 | 0.0 | 0.00 | 0.00 | 0.00 | 83 | 1015.4 |
| 20260506192134 | 52 | 199 | 0.0 | 0.0 | 0.00 | 0.00 | 0.00 | 83 | 1015.4 |
| 20260506192034 | 52 | 199 | 0.0 | 0.0 | 0.00 | 0.00 | 0.00 | 83 | 1015.4 |
| 20260506191938 | 52 | 199 | 0.0 | 0.0 | 0.00 | 0.00 | 0.00 | 83 | 1015.4 |
| 20260506191835 | 52 | 199 | 0.0 | 0.0 | 0.00 | 0.00 | 0.00 | 83 | 1015.4 |
| 20260506191736 | 52 | 199 | 0.0 | 0.0 | 0.00 | 0.00 | 0.00 | 83 | 1015.4 |
| 20260506191634 | 52 | 199 | 0.0 | 0.0 | 0.00 | 0.00 | 0.00 | 83 | 1015.4 |
| 20260506191536 | 52 | 199 | 0.0 | 0.0 | 0.00 | 0.00 | 0.00 | 83 | 1015.4 |
| 20260506191433 | 52 | 199 | 0.0 | 0.0 | 0.00 | 0.00 | 0.00 | 83 | 1015.3 |
| 20260506191334 | 52 | 199 | 0.0 | 0.0 | 0.00 | 0.00 | 0.00 | 83 | 1015.3 |
| 20260506191234 | 52 | 199 | 0.0 | 0.0 | 0.00 | 0.00 | 0.00 | 82 | 1015.3 |
| 20260506191137 | 52 | 199 | 0.0 | 0.0 | 0.00 | 0.00 | 0.00 | 82 | 1015.3 |
| 20260506191030 | 52 | 199 | 0.0 | 0.0 | 0.00 | 0.00 | 0.00 | 82 | 1015.3 |
| 20260506190930 | 52 | 199 | 0.0 | 0.0 | 0.00 | 0.00 | 0.00 | 82 | 1015.3 |
| 20260506190831 | 52 | 199 | 0.0 | 0.0 | 0.00 | 0.00 | 0.00 | 82 | 1015.3 |
| 20260506190733 | 52 | 199 | 0.0 | 0.0 | 0.00 | 0.00 | 0.00 | 82 | 1015.3 |
| 20260506190630 | 52 | 199 | 0.0 | 0.0 | 0.00 | 0.00 | 0.00 | 82 | 1015.2 |
| 20260506190530 | 52 | 199 | 0.0 | 0.0 | 0.00 | 0.00 | 0.00 | 82 | 1015.2 |
| 20260506190430 | 52 | 199 | 0.0 | 0.0 | 0.00 | 0.00 | 0.00 | 82 | 1015.2 |
| 20260506190330 | 52 | 199 | 0.0 | 0.0 | 0.00 | 0.00 | 0.00 | 82 | 1015.2 |
| 20260506190230 | 52 | 199 | 0.0 | 0.0 | 0.00 | 0.00 | 0.00 | 81 | 1015.2 |
| 20260506190132 | 52 | 199 | 0.0 | 0.0 | 0.00 | 0.00 | 0.00 | 81 | 1015.2 |
| 20260506190029 | 53 | 199 | 0.0 | 0.0 | 0.00 | 0.00 | 0.00 | 81 | 1015.2 |
| 20260506185930 | 53 | 199 | 0.0 | 0.0 | 0.00 | 0.00 | 0.00 | 81 | 1015.2 |
| 20260506185830 | 53 | 199 | 0.0 | 0.0 | 0.00 | 0.00 | 0.00 | 81 | 1015.2 |
| 20260506185730 | 53 | 199 | 0.0 | 0.0 | 0.00 | 0.00 | 0.00 | 81 | 1015.2 |
| 20260506185632 | 53 | 199 | 0.0 | 0.0 | 0.00 | 0.00 | 0.00 | 81 | 1015.2 |
| 20260506185531 | 53 | 199 | 0.0 | 0.0 | 0.00 | 0.00 | 0.00 | 81 | 1015.2 |
| 20260506185430 | 53 | 199 | 0.0 | 0.0 | 0.00 | 0.00 | 0.00 | 81 | 1015.2 |
| 20260506185329 | 53 | 199 | 0.0 | 0.0 | 0.00 | 0.00 | 0.00 | 81 | 1015.1 |
| 20260506185232 | 53 | 199 | 0.0 | 0.0 | 0.00 | 0.00 | 0.00 | 81 | 1015.1 |
| 20260506185127 | 53 | 199 | 0.0 | 0.0 | 0.00 | 0.00 | 0.00 | 81 | 1015.1 |
| 20260506185027 | 53 | 199 | 0.0 | 0.0 | 0.00 | 0.00 | 0.00 | 81 | 1015.1 |
| 20260506184929 | 53 | 199 | 0.0 | 0.0 | 0.00 | 0.00 | 0.00 | 81 | 1015.1 |
| 20260506184826 | 53 | 199 | 0.0 | 0.0 | 0.00 | 0.00 | 0.00 | 81 | 1015.1 |
| 20260506184726 | 53 | 199 | 0.0 | 0.0 | 0.00 | 0.00 | 0.00 | 81 | 1015.1 |
| 20260506184628 | 53 | 199 | 0.0 | 0.0 | 0.00 | 0.00 | 0.00 | 81 | 1015.1 |
| 20260506184427 | 53 | 199 | 0.0 | 0.0 | 0.00 | 0.00 | 0.00 | 81 | 1015.1 |
| 20260506184328 | 53 | 199 | 0.0 | 0.0 | 0.00 | 0.00 | 0.00 | 81 | 1015.1 |
| 20260506184226 | 53 | 199 | 0.0 | 0.0 | 0.00 | 0.00 | 0.00 | 80 | 1015.1 |
| 20260506184129 | 53 | 199 | 0.0 | 0.0 | 0.00 | 0.00 | 0.00 | 81 | 1015.0 |
| 20260506184026 | 54 | 199 | 0.0 | 0.0 | 0.00 | 0.00 | 0.00 | 80 | 1015.1 |
| 20260506183926 | 54 | 199 | 0.0 | 0.0 | 0.00 | 0.00 | 0.00 | 80 | 1015.0 |
| 20260506183826 | 54 | 199 | 0.0 | 0.0 | 0.00 | 0.00 | 0.00 | 79 | 1015.0 |
| 20260506183727 | 54 | 199 | 0.0 | 0.0 | 0.00 | 0.00 | 0.00 | 79 | 1015.0 |
| 20260506183625 | 54 | 199 | 0.0 | 0.0 | 0.00 | 0.00 | 0.00 | 79 | 1015.0 |
| 20260506183526 | 54 | 199 | 0.0 | 0.0 | 0.00 | 0.00 | 0.00 | 79 | 1015.0 |
| 20260506183429 | 54 | 199 | 0.0 | 0.0 | 0.00 | 0.00 | 0.00 | 78 | 1015.0 |
| 20260506183327 | 54 | 199 | 0.0 | 0.0 | 0.00 | 0.00 | 0.00 | 78 | 1015.0 |
| 20260506183224 | 54 | 199 | 0.0 | 0.0 | 0.00 | 0.00 | 0.00 | 77 | 1015.0 |
| 20260506183122 | 54 | 199 | 0.0 | 0.0 | 0.00 | 0.00 | 0.00 | 78 | 1015.0 |
| 20260506183023 | 54 | 199 | 0.0 | 0.0 | 0.00 | 0.00 | 0.00 | 78 | 1015.0 |
| 20260506182923 | 54 | 199 | 0.0 | 0.0 | 0.00 | 0.00 | 0.00 | 78 | 1015.0 |
| 20260506182827 | 54 | 199 | 0.0 | 0.0 | 0.00 | 0.00 | 0.00 | 78 | 1015.0 |
| 20260506182722 | 54 | 199 | 0.0 | 0.0 | 0.00 | 0.00 | 0.00 | 78 | 1015.0 |
| 20260506182622 | 54 | 199 | 0.0 | 0.0 | 0.00 | 0.00 | 0.00 | 78 | 1015.0 |
| 20260506182522 | 54 | 199 | 0.0 | 0.0 | 0.00 | 0.00 | 0.00 | 78 | 1014.9 |
| 20260506182425 | 54 | 199 | 0.0 | 0.0 | 0.00 | 0.00 | 0.00 | 78 | 1015.0 |
| 20260506182324 | 54 | 199 | 0.0 | 0.0 | 0.00 | 0.00 | 0.00 | 77 | 1014.9 |
| 20260506182222 | 54 | 199 | 0.0 | 0.0 | 0.00 | 0.00 | 0.00 | 77 | 1014.9 |
| 20260506182122 | 54 | 199 | 0.0 | 0.0 | 0.00 | 0.00 | 0.00 | 77 | 1014.9 |
| 20260506182024 | 54 | 199 | 0.0 | 0.0 | 0.00 | 0.00 | 0.00 | 77 | 1014.9 |
| 20260506181921 | 54 | 199 | 0.0 | 0.0 | 0.00 | 0.00 | 0.00 | 77 | 1014.9 |
| 20260506181824 | 54 | 199 | 0.0 | 0.0 | 0.00 | 0.00 | 0.00 | 77 | 1014.9 |
| 20260506181722 | 54 | 199 | 0.0 | 0.0 | 0.00 | 0.00 | 0.00 | 77 | 1014.9 |
| 20260506181622 | 54 | 199 | 0.0 | 0.0 | 0.00 | 0.00 | 0.00 | 77 | 1014.9 |
| 20260506181525 | 55 | 199 | 0.0 | 0.0 | 0.00 | 0.00 | 0.00 | 77 | 1014.9 |
| 20260506181422 | 55 | 199 | 0.0 | 0.0 | 0.00 | 0.00 | 0.00 | 77 | 1014.9 |
| 20260506181321 | 55 | 199 | 0.0 | 0.0 | 0.00 | 0.00 | 0.00 | 77 | 1014.9 |
| 20260506181218 | 55 | 199 | 0.0 | 0.0 | 0.00 | 0.00 | 0.00 | 77 | 1014.9 |
| 20260506181117 | 55 | 199 | 0.0 | 0.0 | 0.00 | 0.00 | 0.00 | 77 | 1014.9 |
| 20260506181021 | 55 | 199 | 0.0 | 0.0 | 0.00 | 0.00 | 0.00 | 77 | 1014.9 |
| 20260506180918 | 55 | 199 | 0.0 | 0.0 | 0.00 | 0.00 | 0.00 | 78 | 1014.9 |
| 20260506180818 | 55 | 199 | 0.0 | 0.0 | 0.00 | 0.00 | 0.00 | 78 | 1014.9 |
| 20260506180718 | 55 | 199 | 0.0 | 0.0 | 0.00 | 0.00 | 0.00 | 78 | 1014.9 |
| 20260506180618 | 55 | 199 | 0.0 | 0.0 | 0.00 | 0.00 | 0.00 | 78 | 1015.0 |
| 20260506180519 | 55 | 199 | 0.0 | 0.0 | 0.00 | 0.00 | 0.00 | 78 | 1015.0 |
| 20260506180418 | 55 | 199 | 0.0 | 0.0 | 0.00 | 0.00 | 0.00 | 78 | 1015.0 |
| 20260506180318 | 55 | 199 | 0.0 | 0.0 | 0.00 | 0.00 | 0.00 | 79 | 1015.0 |
| 20260506180223 | 55 | 199 | 0.0 | 0.0 | 0.00 | 0.00 | 0.00 | 79 | 1015.0 |
| 20260506180121 | 55 | 199 | 0.0 | 0.0 | 0.00 | 0.00 | 0.00 | 79 | 1015.1 |
| 20260506180019 | 55 | 199 | 0.0 | 0.0 | 0.00 | 0.00 | 0.00 | 79 | 1015.1 |
| 20260506175918 | 55 | 199 | 0.0 | 0.0 | 0.00 | 0.00 | 0.00 | 78 | 1015.0 |
| 20260506175818 | 55 | 199 | 0.0 | 0.0 | 0.00 | 0.00 | 0.00 | 78 | 1015.0 |
| 20260506175721 | 55 | 199 | 0.0 | 0.0 | 0.00 | 0.00 | 0.00 | 78 | 1015.0 |
| 20260506175618 | 55 | 199 | 0.0 | 0.0 | 0.00 | 0.00 | 0.00 | 78 | 1015.0 |
| 20260506175521 | 55 | 199 | 0.0 | 0.0 | 0.00 | 0.00 | 0.00 | 78 | 1015.0 |
| 20260506175414 | 55 | 199 | 0.0 | 0.0 | 0.00 | 0.00 | 0.00 | 77 | 1015.0 |
| 20260506175313 | 55 | 199 | 0.0 | 0.0 | 0.00 | 0.00 | 0.00 | 77 | 1014.9 |
| 20260506175222 | 55 | 199 | 0.0 | 0.0 | 0.00 | 0.00 | 0.00 | 77 | 1015.0 |
| 20260506175114 | 55 | 199 | 0.0 | 0.0 | 0.00 | 0.00 | 0.00 | 77 | 1015.0 |
| 20260506175017 | 55 | 199 | 0.0 | 0.0 | 0.00 | 0.00 | 0.00 | 76 | 1014.9 |
| 20260506174916 | 55 | 199 | 0.0 | 0.0 | 0.00 | 0.00 | 0.00 | 76 | 1014.9 |
| 20260506174813 | 55 | 199 | 0.0 | 0.0 | 0.00 | 0.00 | 0.00 | 76 | 1014.9 |
| 20260506174718 | 55 | 199 | 0.0 | 0.0 | 0.00 | 0.00 | 0.00 | 76 | 1014.9 |
| 20260506174616 | 55 | 199 | 0.0 | 0.0 | 0.00 | 0.00 | 0.00 | 76 | 1014.9 |
| 20260506174515 | 55 | 199 | 0.0 | 0.0 | 0.00 | 0.00 | 0.00 | 76 | 1014.9 |
| 20260506174414 | 55 | 199 | 0.0 | 0.0 | 0.00 | 0.00 | 0.00 | 76 | 1014.9 |
| 20260506174317 | 55 | 199 | 0.0 | 0.0 | 0.00 | 0.00 | 0.00 | 76 | 1014.9 |
| 20260506174213 | 55 | 199 | 0.0 | 0.0 | 0.00 | 0.00 | 0.00 | 76 | 1014.8 |
| 20260506174109 | 55 | 199 | 0.0 | 0.0 | 0.00 | 0.00 | 0.00 | 76 | 1014.8 |
| 20260506174009 | 55 | 199 | 0.0 | 0.0 | 0.00 | 0.00 | 0.00 | 76 | 1014.8 |
| 20260506173906 | 55 | 199 | 0.0 | 0.0 | 0.00 | 0.00 | 0.00 | 77 | 1014.8 |
| 20260506173809 | 55 | 199 | 0.0 | 0.0 | 0.00 | 0.00 | 0.00 | 76 | 1014.8 |
| 20260506173719 | 55 | 199 | 0.0 | 0.0 | 0.00 | 0.00 | 0.00 | 76 | 1014.8 |